     2.10           OBSERVATION DATA    M (MIXED)           RINEX VERSION / TYPE
teqc 2001Nov28 20030924 02:03:02UTC                         PGM / RUN BY / DATE
JOZ2                                                        MARKER NAME
12204M002                                                   MARKER NUMBER
Automatic IG&GA                                             OBSERVER / AGENCY
12127 ASHTECH Z18 0064                                      REC # / TYPE / VERS
4801 ASH701941.B SNOW                                       ANT # / TYPE
  3664892.2859  1409229.7248  5009632.4689                  APPROX POSITION XYZ
        0.0000        0.0000        0.0000                  ANTENNA: DELTA H/E/N
     1     1                                                WAVELENGTH FACT L1/2
     5    L1    L2    C1    P2    P1                        # / TYPES OF OBSERV
    30.0000                                                 INTERVAL
  2003     9    24     1     0    0.0000000     GPS         TIME OF FIRST OBS
    13                                                      LEAP SECONDS
                                                            END OF HEADER
 03  9 24  1  0  0.0000000  0 11G15G18G11G28G23G 3G14G31R 5R21R22
          .189 3          .507 2  21814536.351    21814539.384    21814536.351
          .674 3          .408 2  22942526.692    22942527.608    22942526.692
          .601 3          .686 2  23287696.733    23287698.279    23287696.733
          .136 3          .025 1  25040496.312    25040496.055    25040496.312
          .340 3          .547 2  20949004.698    20949006.959    20949004.698
          .486 3          .896 2  21076060.360    21076063.222    21076060.360
          .165 3          .736 2  22737188.839    22737190.785    22737188.839
          .561 3          .621 2  20389757.307    20389759.024    20389757.307
          .462 3          .709 2  19018266.548    19018259.158    19018266.548
          .776 3          .743 2  20134235.100    20134234.642    20134235.100
          .507 3          .969 2  24264966.127    24264969.679    24264966.127
 03  9 24  1  0 30.0000000  0 11G15G18G11G28G23G 3G14G31R 5R21R22
     80942.813 3     63072.675 2  21829939.599    21829942.518    21829939.599
     91500.095 3     71298.664 2  22959938.419    22959939.364    22959938.419
    -92350.349 3    -71961.076 2  23270122.693    23270124.582    23270122.693
    -68666.269 3    -53506.154 1  25027429.232    25027429.661    25027429.232
     29612.160 3     23074.692 2  20954639.381    20954641.985    20954639.381
     62495.557 3     48698.341 2  21087952.566    21087955.514    21087952.566
    -86426.933 3    -67345.034 2  22720743.200    22720744.832    22720743.200
     -4610.825 3     -3592.666 2  20388879.728    20388881.645    20388879.728
     22474.515 3     17480.555 2  19022469.495    19022461.646    19022469.495
    -66290.840 3    -51559.393 2  20121851.210    20121850.752    20121851.210
   -131384.035 3   -102187.060 2  24240466.073    24240470.886    24240466.073
 03  9 24  1  1  0.0000000  0 11G15G18G11G28G23G 3G14G31R 5R21R22
    162142.327 3    126345.014 2  21845391.171    21845394.233    21845391.171
    183241.051 3    142785.126 2  22977395.636    22977397.181    22977395.636
   -184564.730 3   -143816.385 2  23252575.448    23252576.822    23252575.448
   -136912.345 3   -106684.845 1  25014442.531    25014446.538    25014442.531
     59659.441 3     46488.163 2  20960357.285    20960359.746    20960357.285
    125453.563 3     97756.516 2  21099933.232    21099935.750    21099933.232
   -172494.209 3   -134410.428 2  22704364.413    22704366.417    22704364.413
     -8626.024 3     -6721.378 2  20388115.679    20388117.511    20388115.679
     45546.875 3     35425.733 2  19026783.632    19026776.184    19026783.632
   -131948.749 3   -102626.640 2  20109585.685    20109585.398    20109585.685
   -262692.457 3   -204315.761 2  24215979.208    24215984.421    24215979.208
 03  9 24  1  1 30.0000000  0 11G15G18G11G28G23G 3G14G31R 5R21R22
    243589.081 3    189809.997 2  21860889.907    21860892.568    21860889.907
    275213.175 3    214451.733 2  22994897.583    22994898.356    22994897.583
   -276649.862 3   -215570.994 2  23235051.086    23235053.061    23235051.086
   -204744.774 3   -159541.265 1  25001531.964    25001533.853    25001531.964
     90132.360 3     70233.294 2  20966156.277    20966158.710    20966156.277
    188864.622 3    147167.702 2  21111999.968    21112002.572    21111999.968
   -258206.823 3   -201199.437 2  22688054.790    22688056.765    22688054.790
    -12053.180 3     -9391.875 2  20387463.397    20387465.400    20387463.397
     69206.860 3     53827.941 2  19031208.616    19031201.111    19031208.616
   -196979.245 3   -153205.906 2  20097437.698    20097437.182    20097437.698
   -393930.844 3   -306390.086 2  24191505.786    24191511.114    24191505.786
 03  9 24  1  2 30.0000000  0 11G15G18G11G28G23G 3G14G31R 5R21R22
    407268.976 3    317352.739 2  21892037.707    21892040.454    21892037.707
    459890.978 3    358356.546 2  23030040.359    23030041.017    23030040.359
   -460378.178 3   -358735.841 2  23200089.023    23200090.282    23200089.023
   -339109.848 3   -264241.369 1  24975964.660    24975968.008    24975964.660
    152398.823 3    118752.617 2  20978005.043    20978007.590    20978005.043
    317088.876 3    247082.686 2  21136400.479    21136402.855    21136400.479
   -428507.859 3   -333901.472 2  22655646.943    22655648.689    22655646.943
    -17092.136 3    -13318.334 2  20386504.598    20386506.458    20386504.598
    118333.379 3     92037.464 2  19040395.554    19040387.705    19040395.554
   -325091.148 3   -252848.482 2  20073505.207    20073504.806    20073505.207
   -656132.581 3   -510324.787 2  24142609.633    24142616.164    24142609.633
 03  9 24  1  3  0.0000000  0 11G15G18G11G28G23G 3G14G31R 5R21R22
    489492.994 3    381423.388 2  21907684.411    21907686.586    21907684.411
    552585.571 3    430586.099 2  23047679.523    23047680.754    23047679.523
   -552026.092 3   -430149.777 2  23182649.780    23182650.552    23182649.780
   -405644.805 3   -316086.726 1  24963307.027    24963306.455    24963307.027
    184182.612 3    143519.213 2  20984053.134    20984055.824    20984053.134
    381892.111 3    297578.702 2  21148731.913    21148734.574    21148731.913
   -513097.343 3   -399815.349 2  22639550.169    22639550.598    22639550.169
    -18709.952 3    -14578.959 2  20386196.925    20386198.757    20386196.925
    143787.812 3    111835.361 2  19045155.810    19045148.076    19045155.810
   -388173.916 3   -301912.849 2  20061720.783    20061720.554    20061720.783
   -787097.054 3   -612185.999 2  24118188.720    24118191.355    24118188.720
 03  9 24  1  3 30.0000000  0 11G15G18G11G28G23G 3G14G31R 5R21R22
    571960.377 3    445683.669 2  21923377.256    21923379.946    21923377.256
    645502.835 3    502989.182 2  23065361.194    23065362.710    23065361.194
   -643539.227 3   -501458.679 2  23165235.391    23165236.508    23165235.391
   -471756.550 3   -367602.227 1  24950722.898    24950724.787    24950722.898
    216387.046 3    168613.591 2  20990181.452    20990184.342    20990181.452
    447142.689 3    348423.284 2  21161148.640    21161151.445    21161148.640
   -597320.208 3   -465443.509 2  22623523.204    22623524.463    22623523.204
    -19737.316 3    -15379.487 2  20386001.332    20386003.192    20386001.332
    169822.819 3    132084.816 2  19050024.085    19050016.465    19050024.085
   -450615.926 3   -350478.855 2  20050055.820    20050055.361    20050055.820
   -917976.771 3   -713981.401 2  24093781.327    24093786.082    24093781.327
 03  9 24  1  4  0.0000000  0 11G15G18G11G28G23G 3G14G31R 5R21R22
    654684.919 3    510144.343 2  21939119.106    21939121.796    21939119.106
    738656.248 3    575576.265 2  23083087.172    23083088.488    23083087.172
   -734901.281 3   -572649.845 2  23147849.389    23147850.734    23147849.389
   -537428.022 3   -418774.813 1  24938225.366    24938226.683    24938225.366
    249025.678 3    194046.290 2  20996392.459    20996395.177    20996392.459
    512854.276 3    399627.090 2  21173653.246    21173656.194    21173653.246
   -681158.276 3   -530771.837 2  22607569.194    22607571.484    22607569.194
    -20158.926 3    -15707.996 2  20385921.019    20385922.965    20385921.019
    196452.370 3    152796.689 2  19055004.458    19054996.723    19055004.458
   -512397.563 3   -398531.225 2  20038514.622    20038514.794    20038514.622
  -1048754.103 3   -815696.919 2  24069393.349    24069398.849    24069393.349
 03  9 24  1  4 30.0000000  0 11G15G18G11G28G23G 3G14G31R 5R21R22
    737654.734 3    574796.120 2  21954907.721    21954910.440    21954907.721
    832032.387 3    648336.902 2  23100856.205    23100858.322    23100856.205
   -826122.302 3   -643731.129 2  23130490.434    23130493.010    23130490.434
   -602667.663 3   -469610.876 2  24925812.641    24925813.929    24925812.641
    282086.135 3    219807.683 2  21002683.819    21002686.194    21002683.819
    579014.358 3    451180.377 2  21186242.910    21186245.972    21186242.910
   -764619.822 3   -595806.787 2  22591686.674    22591688.420    22591686.674
    -19985.353 3    -15572.741 2  20385953.964    20385956.081    20385953.964
    223663.939 3    173961.251 2  19060093.066    19060085.331    19060093.066
   -573527.479 3   -446076.710 2  20027095.106    20027094.533    20027095.106
  -1179436.665 3   -917338.953 2  24045023.934    24045025.309    24045023.934
 03  9 24  1  5  0.0000000  0 11G15G18G11G28G23G 3G14G31R 5R21R22
    820874.277 3    639642.510 2  21970743.826    21970746.888    21970743.826
    925634.917 3    721273.939 2  23118667.784    23118668.729    23118667.784
   -917195.367 3   -714697.144 2  23113160.660    23113161.548    23113160.660
   -667467.536 3   -520104.213 2  24913482.184    24913482.957    24913482.184
    315572.763 3    245901.164 2  21009056.176    21009058.466    21009056.176
    645627.143 3    503086.440 2  21198919.257    21198922.147    21198919.257
   -847696.267 3   -660541.655 2  22575878.024    22575879.970    22575878.024
    -19210.385 3    -14968.861 2  20386101.472    20386103.475    20386101.472
    251460.709 3    195580.972 2  19065291.222    19065283.487    19065291.222
   -633997.061 3   -493108.598 2  20015798.887    20015798.372    20015798.887
  -1310014.851 3  -1018899.716 2  24020673.762    24020678.288    24020673.762
 03  9 24  1  6  0.0000000  0 12G15G18G11G28G23G 3G14G 9G31R 5R21R22
    988052.494 3    769911.213 2  22002556.920    22002559.438    22002556.920
   1113503.571 3    867665.132 2  23154417.800    23154417.915    23154417.800
  -1098898.128 3   -856283.653 2  23078582.929    23078583.187    23078582.929
   -795746.474 3   -620061.637 1  24889070.213    24889070.241    24889070.213
    383812.318 3    299074.862 2  21022041.819    21022044.223    21022041.819
    780197.549 3    607946.462 2  21224526.825    21224529.687    21224526.825
  -1012688.292 3   -789106.824 2  22544481.152    22544483.098    22544481.152
                                  25105391.352
    -15861.579 3    -12359.408 2  20386738.802    20386740.405    20386738.802
    308796.836 3    240175.766 2  19076013.526    19076005.219    19076013.526
   -752945.365 3   -585623.942 2  19993578.136    19993577.735    19993578.136
  -1570852.654 3  -1221773.623 2  23972032.815    23972036.825    23972032.815
 03  9 24  1  6 30.0000000  0 12G15G18G11G28G23G 3G14G 9G31R 5R21R22
   1072005.887 3    835329.432 2  22018532.823    22018535.571    22018532.823
   1207762.528 3    941113.696 2  23172355.164    23172355.851    23172355.164
  -1189528.509 3   -926904.711 2  23061337.949    23061338.321    23061337.949
   -859224.203 3   -669524.813 1  24876990.168    24876990.970    24876990.168
    418559.432 3    326150.530 2  21028653.839    21028656.271    21028653.839
    848149.160 3    660895.751 2  21237457.644    21237460.563    21237457.644
  -1094601.001 3   -852934.878 2  22528893.589    22528895.563    22528893.589
          .939 3          .978 1  25095765.643    25095769.106    25095765.643
    -13290.027 3    -10355.589 2  20387228.075    20387229.706    20387228.075
    338328.273 3    263144.672 2  19081535.960    19081527.653    19081535.960
   -811422.184 3   -631105.911 2  19982654.038    19982653.809    19982654.038
  -1701108.166 3  -1323083.444 2  23947740.964    23947746.005    23947740.964
 03  9 24  1  7  0.0000000  0 12G15G18G11G28G23G 3G14G 9G31R 5R21R22
   1156200.639 3    900935.712 2  22034554.431    22034557.665    22034554.431
   1302235.206 3   1014728.767 2  23190332.955    23190334.414    23190332.955
  -1280009.909 3   -997409.659 2  23044119.267    23044120.297    23044119.267
   -922257.902 3   -718641.986 2  24864997.409    24864998.238    24864997.409
    453722.929 3    353550.659 2  21035345.205    21035347.524    21035345.205
    916542.956 3    714189.600 2  21250472.717    21250475.465    21250472.717
  -1176121.075 3   -916456.992 2  22513380.221    22513382.653    22513380.221
    -50099.811 3    -39038.603 1  25086234.115    25086229.765    25086234.115
    -10120.194 3     -7885.607 2  20387831.080    20387833.026    20387831.080
    368433.934 3    286560.200 2  19087165.649    19087157.456    19087165.649
   -869229.575 3   -676067.206 2  19971855.360    19971854.902    19971855.360
  -1831249.933 3  -1424304.749 2  23923472.735    23923476.745    23923472.735
 03  9 24  1  7 30.0000000  0 12G15G18G11G28G23G 3G14G 9G31R 5R21R22
   1240643.132 3    966735.052 2  22050623.328    22050626.447    22050623.328
   1396927.074 3   1088514.656 2  23208351.155    23208352.156    23208351.155
  -1370333.413 3  -1067791.563 2  23026930.270    23026931.615    23026930.270
   -984837.708 3   -767405.455 1  24853087.615    24853089.675    24853087.615
    489308.817 3    381279.930 2  21042117.108    21042119.340    21042117.108
    985384.766 3    767832.549 2  21263573.052    21263575.771    21263573.052
  -1257238.138 3   -979665.064 2  22497944.246    22497946.421    22497944.246
    -99707.699 2    -77694.223 1  25076791.128    25076791.529    25076791.128
     -6344.241 3     -4943.329 2  20388549.813    20388551.759    20388549.813
    399118.976 3    310426.354 2  19092903.662    19092896.042    19092903.662
   -926357.252 3   -720499.844 2  19961183.530    19961182.957    19961183.530
  -1961267.383 3  -1525429.403 2  23899226.027    23899231.184    23899226.027
 03  9 24  1  8  0.0000000  0  9G15G18G11G28G23G 3R 5R21R22
   1325328.617 3   1032723.719 2  22066738.330    22066741.392    22066738.330
   1491832.160 3   1162466.690 2  23226412.886    23226413.229    23226412.886
  -1460501.484 3  -1138052.342 2  23009772.826    23009773.513    23009772.826
  -1046965.285 3   -815816.473 1  24841265.028    24841271.467    24841265.028
    525311.957 3    409334.329 2  21048968.002    21048970.206    21048968.002
   1054669.289 3    821820.470 2  21276757.034    21276760.067    21276757.034
    430377.829 3    334738.802 2  19098749.492    19098741.815    19098749.492
   -982805.683 3   -764404.176 2  19950638.467    19950638.238    19950638.467
  -2091160.169 3  -1626457.135 2  23875005.633    23875007.753    23875005.633
 03  9 24  1  8 30.0000000  0 12G15G18G11G28G23G 3G14G 9G31R 5R21R22
   1410249.105 3   1098895.515 2  22082897.961    22082901.024    22082897.961
   1586941.689 3   1236577.988 2  23244510.632    23244510.889    23244510.632
  -1550519.734 3  -1208196.422 2  22992642.758    22992643.588    22992642.758
  -1108645.651 3   -863879.110 1  24829525.415    24829532.340    24829525.415
    561723.961 3    437707.331 2  21055897.057    21055899.317    21055897.057
   1124388.209 3    876146.885 2  21290024.323    21290027.385    21290024.323
  -1418269.252 3  -1105143.792 2  22467301.197    22467302.656    22467301.197
   -197452.695 3   -153859.371 1  25058191.039    25058192.412    25058191.039
      3009.566 3      2345.326 2  20390329.731    20390331.878    20390329.731
    462201.080 3    359490.238 2  19104700.569    19104692.950    19104700.569
  -1038578.733 3   -807783.212 2  19940219.394    19940219.222    19940219.394
  -2220932.619 3  -1727391.247 2  23850802.818    23850808.949    23850802.818
 03  9 24  1  9  0.0000000  0 12G15G18G11G28G23G 3G14G 9G31R 5R21R22
   1495411.005 3   1165255.422 2  22099104.167    22099106.542    22099104.167
   1682260.773 3   1310852.623 2  23262649.272    23262651.504    23262649.272
  -1640379.566 3  -1278217.049 2  22975542.524    22975543.898    22975542.524
  -1169869.345 3   -911585.837 2  24817876.766    24817877.424    24817876.766
    598550.674 3    466403.465 2  21062904.982    21062907.214    21062904.982
   1194546.998 3    930816.066 2  21303375.162    21303377.738    21303375.162
  -1498177.450 3  -1167409.898 2  22452095.504    22452096.477    22452095.504
   -245584.971 3   -191365.314 1  25049031.634    25049034.181    25049031.634
      8588.184 3      6692.296 2  20391391.383    20391393.329    20391391.383
    494594.382 3    384685.042 2  19110757.979    19110750.187    19110757.979
  -1093666.188 3   -850629.006 2  19929928.469    19929928.412    19929928.469
  -2350573.206 3  -1828222.824 2  23826629.441    23826631.217    23826629.441
 03  9 24  1  9 30.0000000  0 12G15G18G11G28G23G 3G14G 9G31R 5R21R22
   1580809.366 3   1231799.587 2  22115354.852    22115357.285    22115354.852
   1777783.356 3   1385285.806 2  23280826.564    23280827.995    23280826.564
  -1730083.672 3  -1348116.338 2  22958472.405    22958473.721    22958472.405
  -1230638.005 3   -958938.013 1  24806312.289    24806313.147    24806312.289
    635786.685 3    495418.543 2  21069990.674    21069992.849    21069990.674
   1265139.977 3    985823.567 2  21316808.601    21316811.148    21316808.601
  -1577678.306 3  -1229358.592 2  22436966.670    22436968.960    22436966.670
   -293221.855 2   -228485.056 1  25039967.115    25039967.831    25039967.115
     14766.649 3     11506.642 2  20392567.084    20392569.059    20392567.084
    527553.198 3    410319.692 2  19116921.391    19116913.600    19116921.391
  -1148067.553 3   -892941.170 2  19919766.322    19919765.807    19919766.322
  -2480082.880 3  -1928952.604 2  23802477.293    23802481.533    23802477.293
 03  9 24  1 10  0.0000000  0 12G15G18G11G28G23G 3G14G 9G31R 5R21R22
   1666447.477 3   1298530.565 2  22131651.259    22131653.606    22131651.259
   1873512.052 3   1459879.597 2  23299042.470    23299043.815    23299042.470
  -1819626.206 3  -1417889.720 2  22941432.906    22941431.876    22941432.906
  -1290945.411 3  -1005930.825 1  24794837.042    24794835.383    24794837.042
    673435.048 3    524754.942 2  21077155.040    21077157.387    21077155.040
   1336170.089 3   1041171.706 2  21330325.399    21330327.975    21330325.399
  -1656764.655 3  -1290984.305 2  22421916.954    22421918.929    22421916.954
   -340356.542 3   -265213.497 1  25030997.018    25030999.736    25030997.018
     21549.558 3     16792.006 2  20393857.848    20393859.651    20393857.848
    561078.380 3    436394.846 2  19123191.015    19123183.051    19123191.015
  -1201776.112 3   -934714.499 2  19909733.050    19909732.076    19909733.050
  -2609453.273 3  -2029573.934 2  23778351.914    23778355.925    23778351.914
 03  9 24  1 10 30.0000000  0 12G15G18G11G28G23G 3G14G 9G31R 5R21R22
   1752319.136 3   1365443.534 2  22147991.862    22147994.981    22147991.862
   1969439.551 3   1534628.313 2  23317296.655    23317298.401    23317296.655
  -1909010.838 3  -1487540.039 2  22924423.995    22924424.281    22924423.995
  -1350794.492 3  -1052566.530 1  24783447.468    24783449.414    24783447.468
    711489.012 3    554407.385 2  21084396.401    21084398.948    21084396.401
   1407630.405 3   1096855.051 2  21343923.644    21343926.105    21343923.644
  -1735438.975 3  -1352288.944 2  22406945.415    22406947.504    22406945.415
   -386992.314 3   -301553.169 1  25022124.452    25022125.253    25022124.452
     28931.890 3     22544.486 2  20395262.519    20395264.551    20395262.519
    595163.517 3    462905.500 2  19129565.214    19129557.364    19129565.214
  -1254795.834 3   -975952.067 2  19899828.444    19899827.528    19899828.444
  -2738686.661 3  -2130088.743 2  23754251.548    23754255.386    23754251.548
 03  9 24  1 11  0.0000000  0 12G15G18G11G28G23G 3G14G 9G31R 5R21R22
   1838424.603 3   1432538.692 2  22164376.961    22164379.566    22164376.961
   2065564.895 3   1609531.197 2  23335589.430    23335591.720    23335589.430
  -1998235.395 3  -1557065.653 2  22907444.290    22907445.521    22907444.290
  -1410181.950 3  -1098842.393 1  24772145.540    24772146.170    24772145.540
    749948.616 3    584375.920 2  21091714.717    21091717.350    21091714.717
   1479520.630 3   1152873.392 2  21357603.932    21357606.451    21357603.932
  -1813696.808 3  -1413269.038 2  22392053.504    22392055.793    22392053.504
   -433125.447 2   -337501.319 1  25013344.804    25013344.261    25013344.804
     36915.167 3     28765.253 2  20396781.887    20396783.604    20396781.887
    629808.162 3    489851.339 2  19136043.987    19136035.908    19136043.987
  -1307120.917 3  -1016649.366 2  19890053.326    19890053.154    19890053.326
  -2867777.668 3  -2230492.814 2  23730178.720    23730182.444    23730178.720
 03  9 24  1 11 30.0000000  0 12G15G18G11G28G23G 3G14G 9G31R 5R21R22
   1924763.913 3   1499816.055 2  22180807.507    22180809.882    22180807.507
   2161887.555 3   1684587.817 2  23353919.164    23353919.765    23353919.164
  -2087297.271 3  -1626464.483 2  22890496.821    22890497.136    22890496.821
  -1469104.572 3  -1144756.182 1  24760932.908    24760933.996    24760932.908
    788813.440 3    614660.211 2  21099110.766    21099113.256    21099110.766
   1551840.186 3   1209226.270 2  21371366.076    21371368.709    21371366.076
  -1891534.312 3  -1473921.606 2  22377242.254    22377244.000    22377242.254
   -478751.858 3   -373054.441 1  25004660.219    25004667.774    25004660.219
     45500.553 3     35455.143 2  20398415.684    20398417.430    20398415.684
    665010.559 3    517230.950 2  19142626.731    19142618.881    19142626.731
  -1358747.551 3  -1056803.418 2  19880409.034    19880409.148    19880409.034
  -2996721.577 3  -2330782.417 2  23706133.115    23706138.615    23706133.115
 03  9 24  1 12  0.0000000  0 12G15G18G11G28G23G 3G14G 9G31R 5R21R22
   2011334.408 3   1567273.568 2  22197280.897    22197283.244    22197280.897
   2258403.537 3   1759795.110 2  23372285.298    23372285.870    23372285.298
  -2176196.625 3  -1695736.710 2  22873580.295    22873580.295    22873580.295
  -1527561.474 3  -1190306.918 1  24749810.079    24749810.164    24749810.079
    828080.613 3    645258.013 2  21106583.076    21106585.508    21106583.076
   1624585.767 3   1265911.119 2  21385209.116    21385211.520    21385209.116
  -1968950.120 3  -1534245.598 2  22362510.187    22362511.876    22362510.187
   -523870.990 3   -408212.209 1  24996074.768    24996079.862    24996074.768
     54686.728 3     42613.252 2  20400163.760    20400165.534    20400163.760
    700767.749 3    545042.085 2  19149313.655    19149306.149    19149313.655
  -1409674.067 3  -1096412.938 2  19870895.790    19870895.560    19870895.790
  -3125516.251 3  -2430955.996 2  23682115.148    23682119.273    23682115.148
 03  9 24  1 12 30.0000000  0 12G15G18G11G28G23G 3G14G 9G31R 5R21R22
   2098137.520 3   1634912.344 2  22213799.678    22213801.395    22213799.678
   2355113.508 3   1835153.563 2  23390689.521    23390690.551    23390689.521
  -2264929.425 3  -1764879.106 2  22856694.708    22856694.593    22856694.708
  -1585548.749 3  -1235491.781 1  24738775.422    24738773.791    24738775.422
    867751.067 3    676170.071 2  21114132.009    21114134.413    21114132.009
   1697758.253 3   1322928.634 2  21399133.289    21399135.664    21399133.289
  -2045939.039 3  -1594236.930 2  22347859.819    22347861.994    22347859.819
   -568478.428 3   -442971.277 1  24987587.434    24987590.353    24987587.434
     64476.237 3     50241.474 2  20402026.733    20402028.565    20402026.733
    737080.223 3    573285.142 2  19156104.192    19156096.171    19156104.192
  -1459895.852 3  -1135474.343 2  19861513.710    19861513.882    19861513.710
  -3254155.788 3  -2531008.967 2  23658126.835    23658130.330    23658126.835
 03  9 24  1 13  0.0000000  0 11G18G11G28G23G 3G14G 9G31R 5R21R22
   2452010.763 3   1910657.940 2  23409128.915    23409130.002    23409128.915
  -2353499.471 3  -1833894.716 2  22839840.077    22839840.993    22839840.077
  -1643068.894 3  -1280312.617 1  24727829.361    24727830.735    24727829.361
    907818.199 3    707391.214 2  21121756.570    21121759.117    21121756.570
   1771351.104 3   1380273.710 2  21413137.241    21413140.075    21413137.241
  -2122503.095 3  -1653897.221 2  22333290.381    22333292.069    22333290.381
   -612576.329 2   -477333.246 1  24979197.477    24979201.713    24979197.477
     74864.037 3     58335.878 2  20404003.318    20404005.264    20404003.318
    773941.172 3    601954.748 2  19162997.149    19162989.529    19162997.149
  -1509414.346 3  -1173988.727 2  19852263.456    19852263.112    19852263.456
  -3382641.889 3  -2630942.487 2  23634166.552    23634170.276    23634166.552
 03  9 24  1 13 30.0000000  0 11G18G11G28G23G 3G14G 9G31R 5R21R22
   2549095.496 3   1986308.357 2  23427602.675    23427603.619    23427602.675
  -2441902.988 3  -1902780.557 2  22823018.362    22823018.563    22823018.362
  -1700118.059 3  -1324766.478 1  24716974.533    24716976.450    24716974.533
    948283.074 3    738922.302 2  21129456.785    21129459.304    21129456.785
   1845364.997 3   1437946.851 2  21427221.506    21427224.397    21427221.506
  -2198637.149 3  -1713222.424 2  22318802.048    22318803.737    22318802.048
   -656160.074 2   -511294.593 1  24970903.374    24970902.888    24970903.374
     85852.738 3     66898.522 2  20406094.433    20406096.379    20406094.433
    811351.034 3    631051.307 2  19169993.182    19169985.849    19169993.182
  -1558224.134 3  -1211951.887 2  19843145.443    19843144.927    19843145.443
  -3510967.431 3  -2730751.230 2  23610236.318    23610239.412    23610236.318
 03  9 24  1 14  0.0000000  0 11G18G11G28G23G 3G14G 9G31R 5R21R22
   2646370.524 3   2062107.087 2  23446113.384    23446114.329    23446113.384
  -2530133.855 3  -1971531.879 2  22806227.917    22806229.662    22806227.917
  -1756689.154 3  -1368847.874 2  24706209.219    24706212.339    24706209.219
    989148.876 3    770765.797 2  21137233.200    21137235.632    21137233.200
   1919802.820 3   1495950.345 2  21441386.523    21441389.585    21441386.523
  -2274333.986 3  -1772206.956 2  22304397.813    22304399.187    22304397.813
   -699223.558 3   -544850.696 1  24962708.341    24962715.925    24962708.341
     97446.908 3     75932.927 2  20408300.655    20408302.687    20408300.655
    849312.535 3    660576.926 2  19177092.744    19177084.895    19177092.744
  -1606318.137 3  -1249358.338 2  19834160.904    19834161.133    19834160.904
  -3639124.991 3  -2830429.228 2  23586336.934    23586340.314    23586336.934
 03  9 24  1 14 30.0000000  0 11G18G11G28G23G 3G14G 9G31R 5R21R22
   2743826.734 3   2138047.012 2  23464659.369    23464659.941    23464659.369
  -2618197.745 3  -2040153.067 2  22789470.287    22789470.716    22789470.287
  -1812787.138 3  -1412560.527 1  24695533.524    24695534.268    24695533.524
   1030407.064 3    802915.041 2  21145084.324    21145086.871    21145084.324
   1994655.919 3   1554277.423 2  21455631.022    21455633.855    21455631.022
  -2349597.702 3  -1830853.966 2  22290075.496    22290077.156    22290075.496
   -741771.301 3   -578004.843 1  24954613.308    24954613.909    24954613.308
    109639.549 3     85433.683 2  20410620.817    20410622.849    20410620.817
    887816.302 3    690524.329 2  19184292.637    19184285.246    19184292.637
  -1653700.524 3  -1286211.311 2  19825309.588    19825309.359    19825309.588
  -3767117.783 3  -2929979.132 2  23562467.956    23562472.310    23562467.956
 03  9 24  1 15  0.0000000  0 11G18G11G28G23G 3G14G 9G31R 5R21R22
   2841464.173 3   2214128.151 2  23483238.573    23483240.290    23483238.573
  -2706091.182 3  -2108641.438 2  22772743.835    22772745.982    22772743.835
  -1868408.113 3  -1455901.530 1  24684948.646    24684949.590    24684948.646
   1072058.487 3    835370.714 2  21153010.245    21153012.964    21153010.245
   2069924.789 3   1612928.493 2  21469954.078    21469956.625    21469954.078
  -2424423.119 3  -1889159.455 2  22275836.953    22275838.070    22275836.953
   -783798.410 3   -610753.108 1  24946612.649    24946617.514    24946612.649
    122432.784 3     95402.432 2  20413055.205    20413057.208    20413055.205
    926862.940 3    720893.944 2  19191594.301    19191586.624    19191594.301
  -1700367.261 3  -1322507.663 2  19816591.838    19816591.551    19816591.838
  -3894939.508 3  -3029395.964 2  23538631.523    23538635.533    23538631.523
 03  9 24  1 15 30.0000000  0 12G15G18G11G28G23G 3G14G 9G31R 5R21R22
   2623730.729 3   2044465.411 2  22313817.051    22313818.940    22313817.051
   2939281.635 3   2290349.521 2  23501852.444    23501853.960    23501852.444
  -2793812.148 3  -2176995.450 2  22756051.174    22756052.290    22756051.174
  -1923549.428 3  -1498868.816 2  24674457.233    24674459.008    24674457.233
   1114102.196 3    868132.053 2  21161010.935    21161013.568    21161010.935
   2145608.357 3   1671902.742 2  21484356.114    21484358.604    21484356.114
  -2498807.171 3  -1947121.044 2  22261681.830    22261683.146    22261681.830
   -825302.740 3   -643094.083 1  24938713.905    24938715.908    24938713.905
    135827.391 3    105839.782 2  20415604.098    20415606.244    20415604.098
    966450.960 3    751684.632 2  19198997.664    19198990.331    19198997.664
  -1746312.953 3  -1358243.207 2  19808008.844    19808008.557    19808008.844
  -4022586.739 3  -3128677.057 2  23514827.356    23514831.767    23514827.356
 03  9 24  1 16  0.0000000  0 12G15G18G11G28G23G 3G14G 9G31R 5R21R22
   2712117.912 3   2113338.538 2  22330636.636    22330639.068    22330636.636
   3037277.610 3   2366710.027 2  23520500.379    23520501.523    23520500.379
  -2881358.610 3  -2245213.449 2  22739391.752    22739393.469    22739391.752
  -1978208.582 3  -1541460.404 1  24664054.461    24664055.720    24664054.461
   1156537.259 3    901198.345 2  21169085.962    21169088.738    21169085.962
   2221705.060 3   1731198.891 2  21498836.750    21498839.555    21498836.750
  -2572746.331 3  -2004735.959 2  22247612.081    22247613.941    22247612.081
   -866281.666 3   -675025.813 1  24930917.035    24930917.951    24930917.035
    149823.792 3    116746.068 2  20418267.561    20418269.536    20418267.561
   1006578.259 3    782894.749 2  19206502.046    19206493.968    19206502.046
  -1791535.688 3  -1393416.460 2  19799560.688    19799560.459    19799560.688
  -4150054.742 3  -3227818.797 2  23491057.865    23491060.615    23491057.865
 03  9 24  1 17 30.0000000  0 12G15G18G11G28G23G 3G14G 9G31R 5R21R22
   2978605.890 3   2320991.424 2  22381346.926    22381350.303    22381346.926
   3332309.697 3   2596605.168 2  23576642.458    23576643.603    23576642.458
  -3142945.529 3  -2449047.405 2  22689613.136    22689614.881    22689613.136
  -2139281.573 3  -1666971.694 2  24633402.153    24633402.925    24633402.153
   1286167.607 3   1002209.032 2  21193753.955    21193756.245    21193753.955
   2452449.140 3   1910999.469 2  21542745.987    21542748.791    21542745.987
  -2791876.228 3  -2175486.463 2  22205912.374    22205914.234    22205912.374
   -986050.106 3   -768351.791 1  24908126.035    24908132.417    24908126.035
    195414.375 3    152271.200 2  20426943.264    20426945.038    20426943.264
   1130169.455 3    879021.229 2  19229614.120    19229606.213    19229614.120
  -1922845.524 3  -1495546.353 2  19775030.565    19775030.565    19775030.565
  -4531353.423 3  -3524384.306 2  23419952.250    23419955.859    23419952.250
 03  9 24  1 18  0.0000000  0 12G15G18G11G28G23G 3G14G 9G31R 5R21R22
   3067872.476 3   2390549.776 2  22398333.784    22398336.846    22398333.784
   3430994.041 3   2673502.062 2  23595422.956    23595423.127    23595422.956
  -3229786.986 3  -2516716.058 2  22673088.154    22673089.156    22673088.154
  -2191999.451 3  -1708050.533 2  24623372.006    24623373.666    24623372.006
   1330146.207 3   1036478.076 2  21202122.959    21202125.076    21202122.959
   2530174.506 3   1971564.692 2  21557536.448    21557539.567    21557536.448
  -2864015.603 3  -2231698.939 2  22192184.834    22192186.036    22192184.834
  -1024911.380 3   -798633.276 1  24900732.752    24900736.329    24900732.752
    211810.026 3    165047.053 2  20430063.070    20430064.902    20430063.070
   1172428.380 3    911889.293 2  19237516.997    19237508.575    19237516.997
  -1965154.423 3  -1528453.291 2  19767127.154    19767126.982    19767127.154
  -4658073.531 3  -3622944.269 2  23396320.837    23396326.222    23396320.837
 03  9 24  1 19  0.0000000  0 12G15G18G11G28G23G 3G14G 9G31R 5R21R22
   3247055.707 3   2530173.029 2  22432431.633    22432434.523    22432431.633
   3628861.336 3   2827684.374 2  23633075.484    23633074.454    23633075.484
  -3402930.043 3  -2651632.728 2  22640140.016    22640141.218    22640140.016
  -2295964.515 3  -1789062.158 2  24603588.799    24603589.343    24603588.799
   1419247.469 3   1105907.644 2  21219078.286    21219080.203    21219078.286
   2686831.017 3   2093634.653 2  21587347.171    21587350.376    21587347.171
  -3006922.997 3  -2343055.323 2  22164990.530    22164992.448    22164990.530
  -1101028.936 3   -857945.746 1  24886246.515    24886249.291    24886246.515
    246398.744 3    191999.317 2  20436644.937    20436646.940    20436644.937
   1258525.908 3    978854.036 2  19253617.094    19253609.532    19253617.094
  -2047566.409 3  -1592551.534 2  19751732.420    19751731.790    19751732.420
  -4910922.143 3  -3819604.144 2  23349168.823    23349172.490    23349168.823
 03  9 24  1 19 30.0000000  0 12G15G18G11G28G23G 3G14G 9G31R 5R21R22
   3336973.348 3   2600238.732 2  22449542.323    22449544.813    22449542.323
   3728043.600 3   2904969.255 2  23651948.837    23651949.209    23651948.837
  -3489225.704 3  -2718876.102 2  22623719.197    22623718.739    22623719.197
  -2347204.985 3  -1828989.733 1  24593835.932    24593838.336    24593835.932
   1464370.146 3   1141068.174 2  21227664.752    21227666.669    21227664.752
   2765761.396 3   2155138.844 2  21602367.258    21602370.034    21602367.258
  -3077682.378 3  -2398192.485 2  22151525.522    22151526.896    22151525.522
  -1138278.061 3   -886970.921 1  24879156.706    24879158.967    24879156.706
    264594.337 3    206177.698 2  20440107.697    20440109.615    20440107.697
   1302363.651 3   1012950.053 2  19261815.237    19261807.331    19261815.237
  -2087661.007 3  -1623736.232 2  19744242.234    19744241.890    19744242.234
  -5037040.061 3  -3917695.804 2  23325650.678    23325654.631    23325650.678
 03  9 24  1 20  0.0000000  0 12G15G18G11G28G23G 3G14G 9G31R 5R21R22
   3427101.665 3   2670468.552 2  22466692.422    22466695.255    22466692.422
   3827383.710 3   2982377.133 2  23670852.850    23670854.825    23670852.850
  -3575341.089 3  -2785978.958 2  22607330.694    22607331.953    22607330.694
  -2397953.694 3  -1868534.162 2  24584180.044    24584183.450    24584180.044
   1509866.922 3   1176520.223 2  21236322.553    21236324.728    21236322.553
   2845085.428 3   2216949.736 2  21617462.056    21617465.061    21617462.056
  -3147980.754 3  -2452970.412 2  22138147.999    22138149.859    22138147.999
  -1174990.092 3   -915577.637 1  24872170.255    24872176.551    24872170.255
    283385.128 3    220819.869 2  20443683.672    20443685.475    20443683.672
   1346719.090 3   1047448.715 2  19270109.852    19270102.289    19270109.852
  -2127017.058 3  -1654346.485 2  19736890.214    19736889.813    19736890.214
  -5162954.016 3  -4015628.846 2  23302169.305    23302173.544    23302169.305
 03  9 24  1 20 30.0000000  0 12G15G18G11G28G23G 3G14G 9G31R 5R21R22
   3517444.703 3   2740865.725 2  22483884.606    22483887.440    22483884.606
   3926884.969 3   3059910.611 2  23689786.329    23689786.472    23689786.329
  -3661269.434 3  -2852936.092 2  22590979.639    22590980.697    22590979.639
  -2448203.565 3  -1907689.850 2  24574617.791    24574618.191    24574617.791
   1555741.314 3   1212266.507 2  21245052.263    21245054.409    21245052.263
   2924806.714 3   2279070.239 2  21632632.421    21632634.996    21632632.421
  -3217810.329 3  -2507383.046 2  22124859.875    22124861.821    22124859.875
  -1211157.987 3   -943760.404 1  24865288.643    24865292.192    24865288.643
    302776.022 3    235929.638 2  20447373.584    20447375.416    20447373.584
   1391595.912 3   1082352.898 2  19278501.995    19278494.719    19278501.995
  -2165626.138 3  -1684375.772 2  19729677.468    19729677.181    19729677.468
  -5288655.013 3  -4113396.212 2  23278729.242    23278732.393    23278729.242
 03  9 24  1 21  0.0000000  0 12G15G18G11G28G23G 3G14G 9G31R 5R21R22
   3607999.765 3   2811428.112 2  22501115.906    22501119.569    22501115.906
   4026543.836 3   3137566.844 2  23708751.865    23708751.179    23708751.865
  -3747011.110 3  -2919747.746 2  22574663.357    22574664.530    22574663.357
  -2497954.490 3  -1946456.738 1  24565149.493    24565150.122    24565149.493
   1601989.927 3   1248304.385 2  21253853.137    21253855.140    21253853.137
   3004921.418 3   2341497.286 2  21647878.084    21647880.717    21647878.084
  -3287170.108 3  -2561429.598 2  22111660.385    22111662.932    22111660.385
  -1246781.831 3   -971519.246 1  24858509.535    24858515.402    24858509.535
    322765.069 3    251505.520 2  20451177.309    20451179.141    20451177.309
   1436989.354 3   1117658.920 2  19286990.832    19286983.155    19286990.832
  -2203488.992 3  -1713824.665 2  19722604.425    19722604.196    19722604.425
  -5414140.931 3  -4210996.344 2  23255329.676    23255332.483    23255329.676
 03  9 24  1 21 30.0000000  0 12G15G18G11G28G23G 3G14G 9G31R 5R21R22
   3698761.113 3   2882151.216 2  22518387.419    22518390.939    22518387.419
   4126353.520 3   3215340.637 2  23727745.120    23727744.662    23727745.120
  -3832569.495 3  -2986416.574 2  22558382.179    22558383.180    22558382.179
  -2547209.802 3  -1984837.476 2  24555777.741    24555777.197    24555777.741
   1648606.318 3   1284628.853 2  21262723.848    21262726.109    21262723.848
   3085422.630 3   2404225.450 2  21663197.009    21663199.556    21663197.009
  -3356062.447 3  -2615111.926 2  22098551.082    22098552.598    22098551.082
  -1281864.439 3   -998856.577 1  24851834.883    24851838.374    24851834.883
    343346.982 3    267543.385 2  20455093.887    20455095.804    20455093.887
   1482892.834 3   1153361.614 2  19295575.254    19295567.405    19295575.254
  -2240606.493 3  -1742693.848 2  19715670.701    19715670.529    19715670.701
  -5539413.095 3  -4308430.155 2  23231966.876    23231969.856    23231966.876
 03  9 24  1 22  0.0000000  0 11G18G11G28G23G 3G14G 9G31R 5R21R22
   4226318.116 3   3293235.156 2  23746767.950    23746766.862    23746767.950
  -3917937.095 3  -3052936.790 2  22542137.847    22542138.305    22542137.847
  -2595961.487 3  -2022825.793 2  24546499.445    24546502.622    24546499.445
   1695595.160 3   1321243.527 2  21271665.367    21271667.743    21271665.367
   3166314.743 3   2467258.229 2  21678590.105    21678593.052    21678590.105
  -3424478.699 3  -2668423.265 2  22085532.126    22085533.700    22085532.126
  -1316397.431 3  -1025765.492 1  24845263.929    24845267.936    24845263.929
    364527.636 3    284047.785 2  20459124.432    20459126.292    20459124.432
   1529310.357 3   1189464.129 2  19304255.592    19304247.341    19304255.592
  -2276970.529 3  -1770976.996 2  19708877.654    19708877.368    19708877.654
  -5664460.970 3  -4405689.565 2  23208647.991    23208651.544    23208647.991
 03  9 24  1 22 30.0000000  0 11G18G11G28G23G 3G14G 9G31R 5R21R22
   4326428.883 3   3371243.531 2  23765817.491    23765818.979    23765817.491
  -4003119.414 3  -3119312.612 2  22525927.522    22525928.695    22525927.522
  -2644214.656 3  -2060425.571 2  24537318.679    24537318.078    24537318.679
   1742947.985 3   1358141.832 2  21280676.103    21280678.678    21280676.103
   3247588.840 3   2530588.615 2  21694056.293    21694058.726    21694056.293
  -3492423.373 3  -2721367.153 2  22072602.622    22072604.224    22072602.622
  -1350386.100 3  -1052250.179 1  24838796.017    24838797.992    24838796.017
    386299.768 3    301013.082 2  20463267.417    20463269.334    20463267.417
   1576232.588 3   1225959.179 2  19313029.865    19313022.187    19313029.865
  -2312586.050 3  -1798677.956 2  19702224.184    19702224.242    19702224.184
  -5789287.758 3  -4502777.012 2  23185371.126    23185373.990    23185371.126
 03  9 24  1 23  0.0000000  0 11G18G11G28G23G 3G14G 9G31R 5R21R22
   4426692.005 3   3449370.670 2  23784896.371    23784897.229    23784896.371
  -4088106.915 3  -3185536.602 2  22509755.658    22509756.173    22509755.658
  -2691959.645 3  -2097629.409 2  24528232.813    24528233.300    24528232.813
   1790671.392 3   1395328.912 2  21289757.643    21289760.247    21289757.643
   3329251.393 3   2594221.711 2  21709596.038    21709599.042    21709596.038
  -3559885.205 3  -2773934.791 2  22059764.556    22059766.417    22059764.556
  -1383820.242 3  -1078302.713 1  24832432.373    24832434.348    24832432.373
    408671.076 3    318445.261 2  20467524.532    20467526.449    20467524.532
   1623665.014 3   1262851.058 2  19321900.184    19321892.449    19321900.184
  -2347442.199 3  -1825788.303 2  19695712.576    19695712.690    19695712.576
  -5913881.993 3  -4599683.608 2  23162136.235    23162139.042    23162136.235
 03  9 24  1 23 30.0000000  0 11G18G11G28G23G 3G14G 9G31R 5R21R22
   4527105.861 3   3527615.234 2  23804003.705    23804006.252    23804003.705
  -4172898.119 3  -3251607.634 2  22493620.413    22493620.728    22493620.413
  -2739194.712 3  -2134435.900 2  24519243.319    24519244.120    24519243.319
   1838764.054 3   1432803.712 2  21298909.655    21298912.145    21298909.655
   3411300.732 3   2658156.239 2  21725209.895    21725212.470    21725209.895
  -3626862.045 3  -2826124.501 2  22047019.068    22047021.358    22047019.068
  -1416698.124 3  -1103921.886 1  24826176.169    24826182.064    24826176.169
    431641.337 3    336344.160 2  20471895.839    20471897.728    20471895.839
   1671606.206 3   1300138.638 2  19330865.092    19330857.587    19330865.092
  -2381536.527 3  -1852306.114 2  19689343.495    19689343.609    19689343.495
  -6038238.888 3  -4696405.583 2  23138945.050    23138948.831    23138945.050
 03  9 24  1 24  0.0000000  0 11G18G11G28G23G 3G14G 9G31R 5R21R22
   4627662.115 3   3605970.735 2  23823141.215    23823139.527    23823141.215
  -4257498.161 3  -3317529.757 2  22477521.337    22477521.881    22477521.337
  -2785924.554 3  -2170848.739 1  24510351.353    24510353.128    24510351.353
   1887217.812 3   1470559.883 2  21308130.033    21308132.580    21308130.033
   3493728.146 3   2722385.344 2  21740895.284    21740897.916    21740895.284
  -3693357.999 3  -2877939.503 2  22034365.526    22034367.100    22034365.526
  -1449024.653 3  -1129111.710 1  24820027.505    24820028.249    24820027.505
    455203.564 3    354704.317 2  20476379.471    20476381.588    20476379.471
   1720047.040 3   1337814.856 2  19339924.415    19339916.280    19339924.415
  -2414873.574 3  -1878234.913 2  19683115.732    19683115.904    19683115.732
  -6162361.958 3  -4792945.710 2  23115799.549    23115801.783    23115799.549
 03  9 24  1 24 30.0000000  0 11G18G11G28G23G 3G14G 9G31R 5R21R22
   4728363.096 3   3684439.008 2  23842304.285    23842303.741    23842304.285
  -4341900.779 3  -3383298.024 2  22461459.966    22461460.910    22461459.966
  -2832142.999 3  -2206863.088 1  24501554.218    24501555.735    24501554.218
   1936035.506 3   1508599.641 2  21317419.576    21317422.095    21317419.576
   3576536.370 3   2786911.170 2  21756653.178    21756656.240    21756653.178
  -3759365.700 3  -2929374.050 2  22021804.657    22021806.832    22021804.657
  -1480792.764 3  -1153866.056 1  24813979.926    24813983.388    24813979.926
    479361.903 3    373528.980 2  20480976.658    20480978.833    20480976.658
   1768991.365 3   1375882.670 2  19349076.993    19349068.915    19349076.993
  -2447445.635 3  -1903568.722 2  19677031.181    19677031.009    19677031.181
  -6286242.406 3  -4889297.168 2  23092697.075    23092700.628    23092697.075
 03  9 24  1 25  0.0000000  0 11G18G11G28G23G 3G14G 9G31R 5R21R22
   4829206.186 3   3763018.033 2  23861491.115    23861493.032    23861491.115
  -4426105.451 3  -3448912.004 2  22445436.547    22445436.747    22445436.547
  -2877849.337 3  -2242478.328 2  24492858.688    24492860.233    24492858.688
   1985214.730 3   1546921.118 2  21326777.974    21326780.206    21326777.974
   3659722.743 3   2851731.695 2  21772482.793    21772485.397    21772482.793
  -3824883.525 3  -2980426.882 2  22009337.487    22009339.176    22009337.487
  -1512002.356 3  -1178185.276 1  24808040.951    24808044.099    24808040.951
    504114.944 3    392817.061 2  20485687.060    20485689.121    20485687.060
   1818434.363 3   1414338.335 2  19358323.286    19358314.864    19358323.286
  -2479252.810 3  -1928307.634 2  19671089.251    19671089.079    19671089.251
  -6409877.367 3  -4985457.647 2  23069642.002    23069644.179    23069642.002
 03  9 24  1 25 30.0000000  0 11G18G11G28G23G 3G14G 9G31R 5R21R22
   4930186.959 3   3841704.344 2  23880709.503    23880708.558    23880709.503
  -4510113.813 3  -3514373.055 2  22429449.835    22429450.866    22429449.835
  -2923044.822 3  -2277695.521 2  24484257.617    24484259.792    24484257.617
   2034751.163 3   1585520.946 2  21336204.605    21336206.895    21336204.605
   3743282.135 3   2916842.895 2  21788383.725    21788386.473    21788383.725
  -3889911.951 3  -3031098.353 2  21996962.541    21996964.601    21996962.541
  -1542654.438 3  -1202070.215 1  24802207.828    24802210.089    24802207.828
    529459.417 3    412566.001 2  20490509.917    20490512.092    20490509.917
   1868371.641 3   1453178.432 2  19367661.825    19367653.976    19367661.825
  -2510295.382 3  -1952451.870 2  19665290.343    19665290.056    19665290.343
  -6533265.734 3  -5081426.377 2  23046632.033    23046636.043    23046632.033
 03  9 24  1 26  0.0000000  0 11G18G11G28G23G 3G14G 9G31R 5R21R22
   5031304.631 3   3920497.336 2  23899950.882    23899950.453    23899950.882
  -4593922.975 3  -3579678.889 2  22413501.409    22413502.010    22413501.409
  -2967726.541 3  -2312512.491 2  24475753.800    24475755.316    24475753.800
   2084644.612 3   1624398.956 2  21345699.015    21345701.390    21345699.015
   3827214.056 3   2982244.370 2  21804355.303    21804358.537    21804355.303
  -3954447.343 3  -3081385.653 2  21984681.516    21984684.177    21984681.516
  -1572745.878 3  -1225518.472 1  24796483.441    24796484.157    24796483.441
    555396.103 3    432776.389 2  20495445.278    20495447.482    20495445.278
   1918801.953 3   1492402.012 2  19377092.159    19377084.310    19377092.159
  -2540570.131 3  -1975998.904 2  19659634.809    19659634.523    19659634.809
  -6656402.335 3  -5177199.229 2  23023670.292    23023672.928    23023670.292
 03  9 24  1 26 30.0000000  0 11G18G11G28G23G 3G14G 9G31R 5R21R22
   5132557.487 3   3999395.681 2  23919218.371    23919217.970    23919218.371
  -4677531.240 3  -3644828.160 2  22397591.733    22397592.420    22397591.733
  -3011892.589 3  -2346927.545 2  24467351.870    24467353.558    24467351.870
   2134893.527 3   1663553.957 2  21355260.983    21355263.387    21355260.983
   3911516.685 3   3047934.687 2  21820397.778    21820400.612    21820397.778
  -4018487.073 3  -3131286.708 2  21972495.304    21972497.422    21972495.304
  -1602274.318 3  -1248527.891 1  24790863.795    24790866.285    24790863.795
    581924.663 3    453447.982 2  20500493.685    20500495.688    20500493.685
   1969723.465 3   1532007.643 2  19386615.042    19386607.365    19386615.042
  -2570074.626 3  -1998946.868 2  19654123.489    19654123.088    19654123.489
  -6779282.436 3  -5272772.587 2  23000754.692    23000757.900    23000754.692
 03  9 24  1 27  0.0000000  0 11G18G11G28G23G 3G14G 9G31R 5R21R22
   5233943.977 3   4078398.153 2  23938512.749    23938513.922    23938512.749
  -4760936.896 3  -3709819.541 2  22381720.336    22381720.565    22381720.336
  -3055541.476 3  -2380939.718 1  24459043.721    24459046.211    24459043.721
   2185496.655 3   1702984.970 2  21364890.450    21364892.997    21364890.450
   3996188.423 3   3113912.625 2  21836510.301    21836513.048    21836510.301
  -4082028.388 3  -3180799.386 2  21960403.893    21960405.639    21960403.893
  -1631237.803 3  -1271096.939 1  24785352.716    24785356.465    24785352.716
    609044.788 3    474580.541 2  20505654.194    20505656.312    20505654.194
   2021134.877 3   1571994.290 2  19396228.882    19396220.975    19396228.882
  -2598805.785 3  -2021293.346 2  19648756.224    19648755.881    19648756.224
  -6901902.489 3  -5368143.686 2  22977888.163    22977891.372    22977888.163
 03  9 24  1 27 30.0000000  0 11G18G11G28G23G 3G14G 9G31R 5R21R22
   5335462.961 3   4157503.870 2  23957831.148    23957830.232    23957831.148
  -4844138.224 3  -3774651.722 2  22365887.524    22365887.667    22365887.524
  -3098671.027 3  -2414547.073 2  24450836.786    24450837.444    24450836.786
   2236452.799 3   1742691.054 2  21374587.035    21374589.553    21374587.035
   4081227.527 3   3180176.861 2  21852692.703    21852695.479    21852692.703
  -4145068.351 3  -3229921.402 2  21948408.076    21948409.593    21948408.076
  -1659633.814 3  -1293223.362 1  24779948.900    24779948.442    24779948.900
    636756.338 3    496173.942 2  20510927.791    20510929.622    20510927.791
   2073034.988 3   1612361.042 2  19405934.113    19405926.837    19405934.113
  -2626761.325 3  -2043036.553 2  19643533.912    19643533.568    19643533.912
  -7024258.100 3  -5463309.111 2  22955071.181    22955073.874    22955071.181
 03  9 24  1 28  0.0000000  0 11G18G11G28G23G 3G14G 9G31R 5R21R22
   5437108.600 3   4236708.254 2  23977173.265    23977173.752    23977173.265
  -4927137.489 3  -3839326.473 2  22350093.157    22350093.644    22350093.157
  -3141283.438 3  -2447751.528 1  24442727.898    24442728.814    24442727.898
   2287756.540 3   1782667.983 2  21384349.610    21384352.329    21384349.610
   4166628.239 3   3246722.828 2  21868943.934    21868946.653    21868943.934
  -4207608.461 3  -3278653.943 2  21936506.844    21936508.848    21936506.844
  -1687465.719 3  -1314910.482 1  24774651.086    24774653.089    24774651.086
    665054.920 3    518224.774 2  20516312.916    20516314.776    20516312.916
   2125416.535 3   1653102.253 2  19415730.145    19415722.525    19415730.145
  -2653943.637 3  -2064178.359 2  19638455.844    19638455.615    19638455.844
  -7146349.378 3  -5558268.931 2  22932302.188    22932307.173    22932302.188
 03  9 24  1 28 30.0000000  0 11G18G11G28G23G 3G14G 9G31R 5R21R22
   5538884.063 3   4316013.820 2  23996541.356    23996541.814    23996541.356
  -5009928.479 3  -3903838.905 2  22334338.267    22334339.211    22334338.267
  -3183372.433 3  -2480548.159 2  24434718.633    24434719.892    24434718.633
   2339411.129 3   1822918.306 2  21394179.058    21394181.948    21394179.058
   4252393.347 3   3313552.723 2  21885264.335    21885267.655    21885264.335
  -4269641.407 3  -3326991.274 2  21924702.364    21924703.881    21924702.364
  -1714726.780 3  -1336152.758 1  24769464.984    24769466.243    24769464.984
    693944.734 3    540736.308 2  20521810.591    20521812.479    20521810.591
   2178281.609 3   1694219.539 2  19425616.379    19425608.587    19425616.379
  -2680345.223 3  -2084712.951 2  19633523.885    19633523.427    19633523.885
  -7268166.830 3  -5653015.793 2  22909586.390    22909589.427    22909586.390
 03  9 24  1 29  0.0000000  0 11G18G11G28G23G 3G14G 9G31R 5R21R22
   5640784.497 3   4395416.768 2  24015932.157    24015932.901    24015932.157
  -5092512.604 3  -3968190.143 2  22318623.867    22318624.468    22318623.867
  -3224939.411 3  -2512937.990 2  24426809.708    24426809.021    24426809.708
   2391411.982 3   1863438.455 2  21404074.747    21404077.351    21404074.747
   4338517.918 3   3380662.737 2  21901653.764    21901656.340    21901653.764
  -4331167.909 3  -3374933.963 2  21912994.157    21912996.275    21912994.157
  -1741418.480 3  -1356951.402 1  24764384.378    24764390.531    24764384.378
    723422.208 3    563705.768 2  20527419.796    20527421.799    20527419.796
   2231626.391 3   1735709.933 2  19435591.967    19435584.117    19435591.967
  -2705967.703 3  -2104641.528 2  19628737.139    19628736.623    19628737.139
  -7389709.664 3  -5747549.042 2  22886920.638    22886924.649    22886920.638
 03  9 24  1 29 30.0000000  0 11G18G11G28G23G 3G14G 9G31R 5R21R22
   5742808.626 3   4474916.073 2  24035345.939    24035347.742    24035345.939
  -5174887.605 3  -4032378.425 2  22302947.724    22302948.382    22302947.724
  -3265982.471 3  -2544919.603 2  24418999.249    24419002.454    24418999.249
   2443758.220 3   1904227.744 2  21414036.113    21414038.431    21414036.113
   4425000.828 3   3448051.974 2  21918110.883    21918113.516    21918110.883
  -4392185.060 3  -3422479.750 2  21901382.959    21901384.418    21901382.959
  -1767538.764 3  -1377305.043 1  24759412.147    24759419.101    24759412.147
    753487.289 3    587133.092 2  20533140.990    20533142.965    20533140.990
   2285448.540 3   1777571.611 2  19445657.493    19445648.899    19445657.493
  -2730807.931 3  -2123961.695 2  19624096.853    19624096.452    19624096.853
  -7510973.893 3  -5841865.631 2  22864307.511    22864309.688    22864307.511
 03  9 24  1 30  0.0000000  0 12G15G18G11G28G23G 3G14G 9G31R 5R21R22
   5272863.691 3   4108724.261 2  22817929.760    22817932.336    22817929.760
   5844954.137 3   4554509.993 2  24054783.163    24054783.879    24054783.163
  -5257052.510 3  -4096403.012 2  22287311.990    22287312.591    22287311.990
  -3306500.384 3  -2576491.976 2  24411287.288    24411288.462    24411287.288
   2496447.838 3   1945284.594 2  21424062.692    21424065.153    21424062.692
   4511839.664 3   3515718.579 2  21934635.473    21934638.850    21934635.473
  -4452690.742 3  -3469626.999 2  21889869.238    21889870.841    21889869.238
  -1793086.219 3  -1397212.150 1  24754551.952    24754554.298    24754551.952
    784138.902 3    611017.459 2  20538973.739    20538975.771    20538973.739
   2339745.080 3   1819802.262 2  19455811.072    19455802.650    19455811.072
  -2754864.826 3  -2142672.608 2  19619602.936    19619602.420    19619602.936
  -7631955.272 3  -5935962.189 2  22841746.580    22841750.705    22841746.580
 03  9 24  1 30 30.0000000  0 12G15G18G11G28G23G 3G14G 9G31R 5R21R22
   5367224.505 3   4182252.142 2  22835885.482    22835889.431    22835885.482
   5947218.992 3   4634196.881 2  24074243.810    24074245.012    24074243.810
  -5339006.495 3  -4160263.269 2  22271716.622    22271717.681    22271716.622
  -3346492.484 3  -2607654.600 2  24403679.305    24403678.160    24403679.305
   2549478.579 3   1986607.253 2  21434154.115    21434156.290    21434154.115
   4599031.701 3   3583660.392 2  21951227.545    21951230.350    21951227.545
  -4512683.186 3  -3516374.322 2  21878452.996    21878454.713    21878452.996
  -1818059.587 3  -1416671.814 1  24749800.292    24749800.091    24749800.292
    815375.767 3    635357.851 2  20544918.207    20544920.010    20544918.207
   2394513.528 3   1862399.949 2  19466052.979    19466044.900    19466052.979
  -2778136.995 3  -2160773.186 2  19615255.533    19615254.788    19615255.533
  -7752650.543 3  -6029836.236 2  22819238.767    22819241.975    22819238.767
 03  9 24  1 31  0.0000000  0 12G15G18G11G28G23G 3G14G 9G31R 5R21R22
   5461776.773 3   4255929.211 2  22853879.007    22853881.325    22853879.007
   6049603.947 3   4713977.368 2  24093726.525    24093728.843    24093726.525
  -5420745.474 3  -4223955.951 2  22256162.378    22256163.380    22256162.378
  -3385954.685 3  -2638404.344 2  24396169.408    24396169.895    24396169.408
   2602851.474 3   2028196.537 2  21444310.268    21444312.929    21444310.268
   4686577.587 3   3651877.938 2  21967887.284    21967890.461    21967887.284
  -4572157.708 3  -3562718.077 2  21867135.124    21867136.441    21867135.124
  -1842455.233 3  -1435681.496 1  24745159.473    24745163.050    24745159.473
    847199.804 3    660155.786 2  20550974.274    20550975.991    20550974.274
   2449754.758 3   1905365.352 2  19476383.478    19476375.686    19476383.478
  -2800619.362 3  -2178259.483 2  19611055.642    19611055.412    19611055.642
  -7873053.099 3  -6123482.617 2  22796786.583    22796790.193    22796786.583
 03  9 24  1 31 30.0000000  0 12G15G18G11G28G23G 3G14G 9G31R 5R21R22
   5556513.713 3   4329750.181 2  22871906.960    22871909.479    22871906.960
   6152101.540 3   4793845.603 2  24113230.615    24113232.704    24113230.615
  -5502273.656 3  -4287484.382 2  22240647.912    22240649.343    22240647.912
  -3424891.167 3  -2668744.461 2  24388759.778    24388758.891    24388759.778
   2656559.235 3   2070046.750 2  21454530.699    21454533.218    21454530.699
   4774469.534 3   3720365.141 2  21984612.442    21984615.475    21984612.442
  -4631117.620 3  -3608660.833 2  21855915.121    21855916.695    21855915.121
  -1866277.173 3  -1454244.068 1  24740627.979    24740626.376    24740627.979
    879604.608 3    685406.274 2  20557140.307    20557142.024    20557140.307
   2505460.440 3   1948692.008 2  19486800.207    19486792.816    19486800.207
  -2822316.808 3  -2195135.278 2  19607002.289    19607001.831    19607002.289
  -7993164.848 3  -6216902.810 2  22774386.757    22774391.398    22774386.757
 03  9 24  1 32  0.0000000  0 12G15G18G11G28G23G 3G14G 9G31R 5R21R22
   5651439.576 3   4403718.373 2  22889971.482    22889972.884    22889971.482
   6254715.168 3   4873804.277 2  24132758.855    24132757.882    24132758.855
  -5583584.120 3  -4350843.175 2  22225175.195    22225176.225    22225175.195
  -3463295.316 3  -2698669.720 2  24381453.139    24381453.883    24381453.139
   2710605.655 3   2112160.837 2  21464815.529    21464817.704    21464815.529
   4862710.790 3   3789124.534 2  22001404.260    22001408.009    22001404.260
  -4689555.392 3  -3654196.718 2  21844794.899    21844796.759    21844794.899
  -1889518.474 3  -1472354.159 1  24736202.904    24736207.512    24736202.904
    912594.548 3    711112.702 2  20563418.118    20563420.121    20563418.118
   2561633.304 3   1992382.016 2  19497304.699    19497297.652    19497304.699
  -2843223.102 3  -2211395.736 2  19603096.923    19603096.636    19603096.923
  -8112976.121 3  -6310089.354 2  22752043.810    22752048.221    22752043.810
 03  9 24  1 32 30.0000000  0 12G15G18G11G28G23G 3G14G 9G31R 5R21R22
   5746552.486 3   4477832.296 2  22908070.418    22908073.623    22908070.418
   6357442.520 3   4953851.541 2  24152305.970    24152307.229    24152305.970
  -5664676.157 3  -4414031.736 2  22209743.767    22209744.912    22209743.767
  -3501166.565 3  -2728179.791 2  24374244.035    24374245.380    24374244.035
   2764988.361 3   2154536.974 2  21475164.196    21475166.514    21475164.196
   4951298.429 3   3858153.835 2  22018261.986    22018265.191    22018261.986
  -4747469.497 3  -3699324.557 2  21833774.607    21833776.124    21833774.607
                                  24731890.184
    946168.229 3    737273.991 2  20569807.077    20569808.995    20569807.077
   2618270.350 3   2036433.063 2  19507896.241    19507888.220    19507896.241
  -2863335.893 3  -2227039.010 2  19599339.517    19599339.173    19599339.517
  -8232484.149 3  -6403039.980 2  22729758.696    22729762.420    22729758.696
 03  9 24  1 33  0.0000000  0 12G15G18G11G28G23G 3G14G 9G31R 5R21R22
   5841847.265 3   4552087.936 2  22926204.078    22926207.169    22926204.078
   6460277.319 3   5033982.537 1  24171875.242    24171877.960    24171875.242
  -5745552.746 3  -4477052.439 2  22194353.984    22194354.385    22194353.984
  -3538507.889 3  -2757276.928 2  24367138.702    24367139.732    24367138.702
   2819701.497 3   2197170.595 2  21485575.734    21485578.281    21485575.734
   5040226.236 3   3927448.210 2  22035184.258    22035187.578    22035184.258
  -4804862.190 3  -3744046.100 2  21822853.137    21822854.940    21822853.137
                                  24727689.225
    980320.563 3    763886.178 2  20576306.078    20576307.966    20576306.078
   2675365.278 3   2080840.226 2  19518573.758    19518565.737    19518573.758
  -2882658.661 3  -2242067.823 2  19595729.753    19595729.351    19595729.753
  -8351688.656 3  -6495754.590 2  22707528.872    22707533.340    22707528.872
 03  9 24  1 33 30.0000000  0 12G15G18G11G28G23G 3G14G 9G31R 5R21R22
   5937352.448 3   4626507.512 2  22944377.280    22944382.918    22944377.280
   6563247.738 3   5114219.227 2  24191469.092    24191471.324    24191469.092
  -5826182.828 3  -4539881.078 2  22179010.630    22179010.945    22179010.630
  -3575288.485 3  -2785937.135 2  24360139.774    24360141.147    24360139.774
   2874772.934 3   2240083.397 2  21496055.515    21496058.177    21496055.515
   5129521.711 3   3997029.092 2  22052176.928    22052179.704    22052176.928
  -4861701.426 3  -3788336.375 2  21812037.017    21812038.248    21812037.017
                                  24723602.740
   1015080.149 3    790971.555 2  20582920.571    20582922.517    20582920.571
   2732945.515 3   2125624.862 2  19529341.239    19529333.734    19529341.239
  -2901159.392 3  -2256457.267 2  19592273.950    19592273.779    19592273.950
  -8470555.991 3  -6588206.922 2  22685363.682    22685366.260    22685363.682
 03  9 24  1 34  0.0000000  0 12G15G18G11G28G23G 3G14G 9G31R 5R21R22
   6033028.863 3   4701060.532 2  22962584.455    22962587.631    22962584.455
   6666313.803 3   5194530.444 2  24211082.586    24211079.638    24211082.586
  -5906602.614 3  -4602545.816 2  22163707.009    22163707.410    22163707.009
  -3611544.900 3  -2814188.861 2  24353238.518    24353238.833    24353238.518
   2930163.125 3   2283244.600 2  21506595.716    21506598.177    21506595.716
   5219144.665 3   4066865.138 2  22069231.466    22069234.557    22069231.466
  -4918023.119 3  -3832223.384 2  21801319.323    21801320.983    21801319.323
                                  24719625.852
   1050408.230 3    818499.920 2  20589643.262    20589645.266    20589643.262
   2790970.494 3   2170755.407 2  19540192.004    19540184.327    19540192.004
  -2918875.507 3  -2270236.451 2  19588964.514    19588964.056    19588964.514
  -8589121.053 3  -6680424.171 2  22663251.505    22663255.974    22663251.505
 03  9 24  1 34 30.0000000  0 12G15G18G11G28G23G 3G14G 9G31R 5R21R22
   6128874.583 3   4775745.494 2  22980822.993    22980826.370    22980822.993
   6769472.342 3   5274913.738 2  24230714.432    24230716.521    24230714.432
  -5986811.955 3  -4665046.598 2  22148443.201    22148444.403    22148443.201
  -3647277.113 3  -2842032.095 2  24346441.452    24346441.394    24346441.452
   2985869.376 3   2326652.070 2  21517196.323    21517198.928    21517196.323
   5309091.877 3   4136953.844 2  22086347.727    22086350.703    22086347.727
  -4973826.219 3  -3875706.283 2  21790700.134    21790701.851    21790700.134
                                  24715758.028
   1086302.877 3    846469.751 2  20596473.639    20596475.871    20596473.639
   2849436.798 3   2216229.199 2  19551125.412    19551117.964    19551125.412
  -2935806.690 3  -2283405.141 2  19585801.419    19585801.076    19585801.419
  -8707380.445 3  -6772403.672 2  22641198.726    22641202.278    22641198.726
 03  9 24  1 35  0.0000000  0 12G15G18G11G28G23G 3G14G 9G31R 5R21R22
   6224899.829 3   4850570.306 2  22999096.063    22999099.240    22999096.063
   6872733.270 3   5355376.751 2  24250362.758    24250362.501    24250362.758
  -6066798.246 3  -4727373.562 2  22133222.556    22133223.100    22133222.556
  -3682472.691 3  -2869457.187 2  24339742.937    24339743.910    24339742.937
   3041900.998 3   2370313.082 2  21527859.112    21527861.173    21527859.112
   5399372.335 3   4207302.226 2  22103527.855    22103531.089    22103527.855
  -5029097.643 3  -3918774.893 2  21780181.574    21780183.663    21780181.574
  -2016707.411 3  -1571483.640 1  24712000.094    24712003.958    24712000.094
   1122774.135 3    874888.903 2  20603413.872    20603416.161    20603413.872
   2908353.880 3   2262053.608 2  19562143.513    19562135.721    19562143.513
  -2951939.095 3  -2295952.567 2  19582787.629    19582787.342    19582787.629
  -8825318.984 3  -6864133.623 2  22619205.150    22619208.817    22619205.150
 03  9 24  1 35 30.0000000  0  7G15G18G11G28G23G 3R22
   6321105.628 3   4925535.844 2  23017403.160    23017405.392    23017403.160
   6976096.812 3   5435919.806 2  24270035.323    24270032.747    24270035.323
  -6146557.767 3  -4789523.815 2  22118044.770    22118045.686    22118044.770
  -3717128.361 3  -2896461.562 2  24333146.783    24333148.557    24333146.783
   3098258.568 3   2414228.074 2  21538583.543    21538585.460    21538583.543
   5489986.237 3   4277910.439 2  22120771.123    22120774.357    22120771.123
  -8942930.636 3  -6955609.329 2  22597272.335    22597276.230    22597272.335
 03  9 24  1 36  0.0000000  0 12G15G18G11G28G23G 3G14G 9G31R 5R21R22
   6417488.366 3   5000639.259 2  23035745.594    23035749.028    23035745.594
   7079558.631 3   5516539.441 2  24289722.282    24289720.021    24289722.282
  -6226091.671 3  -4851498.279 2  22102910.695    22102911.181    22102910.695
  -3751245.585 3  -2923046.416 2  24326656.188    24326659.135    24326656.188
   3154937.780 3   2458393.699 2  21549369.136    21549371.540    21549369.136
   5580928.708 3   4348774.696 2  22138076.709    22138080.143    22138076.709
  -5138032.899 3  -4003659.451 2  21759452.395    21759454.226    21759452.395
  -2054431.426 3  -1600879.331 1  24704820.812    24704822.329    24704820.812
   1197446.817 3    933075.368 2  20617624.070    20617625.931    20617624.070
   3027534.196 3   2354749.420 2  19584430.702    19584422.739    19584430.702
  -2981799.338 3  -2319177.199 2  19577209.430    19577209.487    19577209.430
  -9060213.723 3  -7046829.467 2  22575401.272    22575405.798    22575401.272
 03  9 24  1 36 30.0000000  0 12G15G18G11G28G23G 3G14G 9G31R 5R21R22
   6514044.965 3   5075878.130 2  23054119.130    23054122.765    23054119.130
   7183114.712 3   5597232.484 2  24309426.846    24309425.157    24309426.846
  -6305400.387 3  -4913297.261 2  22087818.325    22087819.098    22087818.325
  -3784825.080 3  -2949212.246 2  24320264.631    24320266.777    24320264.631
   3211935.096 3   2502807.195 2  21560215.133    21560217.480    21560215.133
   5672195.716 3   4419891.815 2  22155443.983    22155447.131    22155443.983
  -5191697.120 3  -4045475.700 2  21749240.367    21749242.055    21749240.367
  -2072413.517 3  -1614891.368 1  24701401.087    24701404.292    24701401.087
   1235641.683 3    962837.589 2  20624892.465    20624893.924    20624892.465
   3087787.199 3   2401612.873 2  19595698.556    19595690.707    19595698.556
  -2995529.634 3  -2329856.309 2  19574644.820    19574644.476    19574644.820
  -9177166.328 3  -7137792.598 2  22553592.713    22553595.635    22553592.713
 03  9 24  1 37 30.0000000  0 11G18G11G28G23G 3G14G 9G31R 5R21R22
   7390519.832 3   5758846.887 2  24348895.570    24348895.857    24348895.570
  -6463320.604 3  -5036351.956 2  22057767.153    22057767.725    22057767.153
  -3850350.245 3  -3000270.753 2  24307795.723    24307798.241    24307795.723
   3326893.682 3   2592385.327 2  21582090.884    21582093.488    21582090.884
   5855711.204 3   4562890.864 2  22190365.985    22190369.247    22190365.985
  -5297394.234 3  -4127837.039 2  21729127.279    21729128.939    21729127.279
  -2106598.602 3  -1641529.123 1  24694894.468    24694895.813    24694894.468
   1313757.636 3   1023707.132 2  20639757.081    20639758.655    20639757.081
   3209623.010 3   2496374.067 2  19618482.610    19618474.646    19618482.610
  -3020567.524 3  -2349330.218 2  19569967.257    19569967.027    19569967.257
  -9410047.148 3  -7318922.076 2  22510163.811    22510167.649    22510163.811
 03  9 24  1 38  0.0000000  0 11G18G11G28G23G 3G14G 9G31R 5R21R22
   7494358.281 3   5839759.954 2  24368653.661    24368657.496    24368653.661
  -6541936.207 3  -5097610.853 2  22042807.558    22042808.016    22042807.558
  -3882301.041 3  -3025167.447 2  24301715.756    24301717.530    24301715.756
   3384844.442 3   2637541.768 2  21593118.790    21593121.394    21593118.790
   5947947.945 3   4634763.627 2  22207918.144    22207921.377    22207918.144
  -5349430.454 3  -4168384.700 2  21719224.911    21719226.056    21719224.911
  -2122806.421 3  -1654158.499 1  24691812.116    24691815.207    24691812.116
   1353669.376 3   1054807.175 2  20647351.939    20647353.942    20647351.939
   3271194.177 3   2544262.756 2  19629996.615    19629988.594    19629996.615
  -3031882.185 3  -2358130.503 2  19567853.813    19567853.412    19567853.813
  -9525974.821 3  -7409088.024 2  22488546.198    22488549.463    22488546.198
 03  9 24  1 38 30.0000000  0 11G18G11G28G23G 3G14G 9G31R 5R21R22
   7598289.004 3   5920744.921 2  24388431.164    24388433.282    24388431.164
  -6620315.892 3  -5158685.904 2  22027891.949    22027892.492    22027891.949
  -3913704.936 3  -3049637.991 2  24295741.262    24295741.949    24295741.262
   3443111.449 3   2682944.635 2  21604206.781    21604209.070    21604206.781
   6040505.567 3   4706886.435 2  22225531.191    22225534.110    22225531.191
  -5400918.305 3  -4208505.072 2  21709426.934    21709428.852    21709426.934
  -2138419.004 3  -1666324.235 1  24688837.741    24688843.866    24688837.741
   1394153.254 3   1086353.047 2  20655055.782    20655057.728    20655055.782
   3333201.956 3   2592491.025 2  19641592.069    19641584.334    19641592.069
  -3042385.308 3  -2366299.601 2  19565891.818    19565891.016    19565891.818
  -9641550.665 3  -7498980.328 2  22466992.713    22466995.749    22466992.713
 03  9 24  1 39  0.0000000  0 11G18G11G28G23G 3G14G 9G31R 5R21R22
   7702307.843 3   6001798.544 2  24408225.970    24408226.914    24408225.970
  -6698460.803 3  -5219578.025 2  22013021.447    22013022.162    22013021.447
  -3944563.452 3  -3073683.564 2  24289867.221    24289867.794    24289867.221
   3501690.590 3   2728590.718 2  21615354.042    21615356.017    21615354.042
   6133379.223 3   4779255.502 2  22243204.712    22243207.803    22243204.712
  -5451858.195 3  -4248198.465 2  21699733.330    21699735.104    21699733.330
  -2153437.390 3  -1678026.943 1  24685980.260    24685983.865    24685980.260
   1435205.528 3   1118341.826 2  20662868.102    20662869.991    20662868.102
   3395641.371 3   2641055.014 2  19653269.039    19653260.732    19653269.039
  -3052080.782 3  -2373840.527 2  19564080.437    19564080.093    19564080.437
  -9756773.601 3  -7588598.160 2  22445506.501    22445509.595    22445506.501
 03  9 24  1 39 30.0000000  0 11G18G11G28G23G 3G14G 9G31R 5R21R22
   7806411.361 3   6082918.157 2  24428036.593    24428036.736    24428036.593
  -6776371.656 3  -5280287.773 2  21998194.978    21998195.865    21998194.978
  -3974877.413 3  -3097304.782 2  24284099.788    24284099.759    24284099.788
   3560578.244 3   2774477.210 2  21626559.865    21626562.125    21626559.865
   6226564.705 3   4851867.557 2  22260937.299    22260940.017    22260937.299
  -5502250.251 3  -4287464.966 2  21690144.596    21690145.598    21690144.596
  -2167862.798 3  -1689267.446 1  24683235.710    24683237.799    24683235.710
   1476823.056 3   1150771.070 2  20670787.724    20670789.584    20670787.724
   3458508.116 3   2689951.363 2  19665024.806    19665016.957    19665024.806
  -3060969.001 3  -2380753.592 2  19562420.085    19562419.856    19562420.085
  -9871641.528 3  -7677939.845 2  22424085.174    22424088.383    22424085.174
 03  9 24  1 40  0.0000000  0 11G18G11G28G23G 3G14G 9G31R 5R21R22
   7910599.873 3   6164103.995 2  24447861.726    24447862.556    24447861.726
  -6854044.395 3  -5340811.975 2  21983414.512    21983415.514    21983414.512
  -4004643.814 3  -3120499.359 2  24278435.025    24278436.456    24278435.025
   3619774.935 3   2820604.492 2  21637824.497    21637826.816    21637824.497
   6320061.899 3   4924722.493 2  22278728.985    22278732.247    22278728.985
  -5552090.520 3  -4326301.510 2  21680659.988    21680661.219    21680659.988
  -2181692.267 3  -1700043.622 1  24680603.842    24680607.820    24680603.842
   1519006.941 3   1183641.611 2  20678814.828    20678816.745    20678814.828
   3521801.946 3   2739179.902 2  19676861.667    19676853.646    19676861.667
  -3069045.430 3  -2387035.267 2  19560911.461    19560911.060    19560911.461
  -9986147.744 3  -7767000.225 2  22402732.476    22402735.169    22402732.476
 03  9 24  1 40 30.0000000  0 12G15G18G11G28G23G 3G14G 9G31R 5R21R22
   7292748.666 3   5682659.985 2  23202301.294    23202304.699    23202301.294
   8014875.330 3   6245357.585 2  24467705.864    24467707.581    24467705.864
  -6931473.944 3  -5401146.681 2  21968679.656    21968681.201    21968679.656
  -4033857.888 3  -3143263.577 2  24272876.882    24272879.258    24272876.882
   3679282.599 3   2866974.115 2  21649148.491    21649150.838    21649148.491
   6413872.488 3   4997821.632 2  22296580.487    22296584.007    22296580.487
  -5601373.230 3  -4364703.609 2  21671281.641    21671282.957    21671281.641
  -2194920.896 3  -1710351.709 1  24678088.004    24678090.580    24678088.004
   1561759.598 3   1216955.352 2  20686950.272    20686952.275    20686950.272
   3585524.290 3   2788741.722 2  19688778.077    19688769.999    19688778.077
  -3076306.342 3  -2392682.643 2  19559554.754    19559554.582    19559554.754
 -10100285.023 3  -7855773.627 2  22381447.039    22381450.534    22381447.039
 03  9 24  1 41  0.0000000  0 12G15G18G11G28G23G 3G14G 9G31R 5R21R22
   7390851.894 3   5759104.014 2  23220969.347    23220972.981    23220969.347
   8119233.301 3   6326675.448 1  24487565.168    24487566.484    24487565.168
  -7008661.809 3  -5461293.036 2  21953991.960    21953992.819    21953991.960
  -4062521.667 3  -3165598.975 2  24267422.500    24267424.017    24267422.500
   3739096.755 3   2913582.553 2  21660530.687    21660533.235    21660530.687
   6507991.125 3   5071160.811 2  22314491.224    22314494.344    22314491.224
  -5650099.558 3  -4402672.142 2  21662009.280    21662010.825    21662009.280
  -2207550.930 3  -1720193.291 1  24675684.597    24675688.088    24675684.597
   1605077.027 3   1250709.171 2  20695193.301    20695195.476    20695193.301
   3649669.498 3   2838632.438 2  19700773.366    19700765.403    19700773.366
  -3082753.194 3  -2397696.882 2  19558350.486    19558350.486    19558350.486
 -10214052.106 3  -7944259.117 2  22360231.926    22360235.364    22360231.926
 03  9 24  1 41 30.0000000  0 12G15G18G11G28G23G 3G14G 9G31R 5R21R22
   7489116.615 3   5835673.899 2  23239668.667    23239672.845    23239668.667
   8223666.914 3   6408052.272 2  24507438.354    24507443.391    24507438.354
  -7085611.532 3  -5521253.849 2  21939349.126    21939349.527    21939349.126
  -4090639.329 3  -3187508.866 2  24262069.131    24262071.878    24262069.131
   3799210.460 3   2960424.403 2  21671969.904    21671972.422    21671969.904
   6602410.660 3   5144734.450 2  22332458.288    22332461.293    22332458.288
  -5698272.837 3  -4440209.729 2  21652841.984    21652843.386    21652841.984
  -2219586.655 3  -1729571.833 1  24673393.006    24673398.615    24673393.006
   1648952.854 3   1284898.118 2  20703542.562    20703544.480    20703542.562
   3714229.863 3   2888846.055 2  19712846.241    19712838.621    19712846.241
  -3088391.400 3  -2402082.155 2  19557297.034    19557297.206    19557297.034
 -10327450.023 3  -8032457.461 2  22339084.886    22339089.241    22339084.886
 03  9 24  1 42  0.0000000  0 12G15G18G11G28G23G 3G14G 9G31R 5R21R22
   7587550.235 3   5912375.415 2  23258399.317    23258403.495    23258399.317
   8328182.757 3   6489493.198 2  24527325.700    24527328.676    24527325.700
  -7162313.305 3  -5581021.450 2  21924752.632    21924753.691    21924752.632
  -4118201.594 3  -3208985.967 2  24256824.888    24256826.233    24256824.888
   3859630.631 3   3007505.064 2  21683467.263    21683469.838    21683467.263
   6697137.284 3   5218547.390 2  22350484.269    22350487.503    22350484.269
  -5745882.578 3  -4477308.190 2  21643782.824    21643784.197    21643782.824
  -2231018.081 3  -1738479.421 1  24671218.130    24671225.371    24671218.130
   1693394.323 3   1319527.832 2  20711999.671    20712001.646    20711999.671
   3779212.971 3   2939388.471 2  19724998.556    19724990.535    19724998.556
  -3093211.111 3  -2405830.824 2  19556396.483    19556396.769    19556396.483
 -10440465.865 3  -8120358.631 2  22318009.872    22318013.424    22318009.872
 03  9 24  1 42 30.0000000  0 12G15G18G11G28G23G 3G14G 9G31R 5R21R22
   7686140.145 3   5989198.672 2  23277160.967    23277163.972    23277160.967
   8432767.803 3   6570988.071 2  24547227.661    24547226.802    24547227.661
  -7238776.955 3  -5640603.501 2  21910202.171    21910203.087    21910202.171
  -4145218.922 3  -3230038.368 2  24251683.288    24251688.611    24251683.288
   3920344.051 3   3054814.223 2  21695020.849    21695023.482    21695020.849
   6792157.332 3   5292588.958 2  22368566.383    22368568.730    22368566.383
  -5792938.790 3  -4513975.341 2  21634827.814    21634829.102    21634827.814
  -2241856.612 3  -1746925.147 1  24669155.896    24669160.246    24669155.896
   1738388.699 3   1354588.383 2  20720561.826    20720563.829    20720561.826
   3844603.733 3   2990247.955 2  19737226.779    19737219.045    19737226.779
  -3097221.814 3  -2408950.275 2  19555646.946    19555647.805    19555646.946
 -10553107.973 3  -8207969.138 2  22297004.427    22297007.464    22297004.427
 03  9 24  1 43  0.0000000  0 12G15G18G11G28G23G 3G14G 9G31R 5R21R22
   7784897.162 3   6066152.165 2  23295954.529    23295957.591    23295954.529
   8537431.936 3   6652544.495 1  24567144.128    24567142.268    24567144.128
  -7314989.500 3  -5699989.862 2  21895699.212    21895700.070    21895699.212
  -4171678.921 3  -3250656.502 2  24246649.733    24246651.335    24246649.733
   3981360.661 3   3102359.642 2  21706631.906    21706634.224    21706631.906
   6887480.109 3   5366866.430 2  22386705.563    22386708.253    22386705.563
  -5839427.875 3  -4550200.570 2  21625981.525    21625982.584    21625981.525
  -2252089.320 3  -1754898.679 1  24667207.607    24667213.788    24667207.607
   1783946.177 3   1390087.704 2  20729231.147    20729233.064    20729231.147
   3910412.021 3   3041432.177 2  19749533.659    19749525.523    19749533.659
  -3100411.059 3  -2411430.804 2  19555051.718    19555051.317    19555051.718
 -10665360.236 3  -8295276.426 2  22276071.254    22276075.208    22276071.254
 03  9 24  1 43 30.0000000  0 12G15G18G11G28G23G 3G14G 9G31R 5R21R22
   7883816.252 3   6143231.956 2  23314778.575    23314781.981    23314778.575
   8642169.653 3   6734158.310 1  24587075.191    24587078.139    24587075.191
  -7390953.653 3  -5759182.682 2  21881243.701    21881244.330    21881243.701
  -4197584.665 3  -3270842.793 2  24241719.957    24241719.613    24241719.957
   4042674.831 3   3150136.919 2  21718299.519    21718302.267    21718299.519
   6983099.276 3   5441374.844 2  22404901.156    22404904.562    22404901.156
  -5885352.231 3  -4585985.758 2  21617242.328    21617243.473    21617242.328
  -2261719.555 3  -1762402.745 1  24665377.104    24665379.966    24665377.104
   1830061.651 3   1426021.823 2  20738006.471    20738008.703    20738006.471
   3976631.131 3   3092935.921 2  19761916.521    19761909.302    19761916.521
  -3102783.084 3  -2413275.714 2  19554608.690    19554608.862    19554608.690
 -10777222.295 3  -8382280.225 2  22255211.144    22255214.181    22255211.144
 03  9 24  1 44  0.0000000  0 12G15G18G11G28G23G 3G14G 9G31R 5R21R22
   7982894.294 3   6220435.585 2  23333633.287    23333636.320    23333633.287
   8746977.252 3   6815826.565 1  24607019.671    24607020.530    24607019.671
  -7466669.706 3  -5818182.185 2  21866835.558    21866836.216    21866835.558
  -4222937.482 3  -3290598.181 2  24236893.874    24236898.080    24236893.874
   4104282.816 3   3198143.144 2  21730023.226    21730025.458    21730023.226
   7079010.442 3   5516110.781 2  22423152.912    22423156.203    22423152.912
  -5930712.059 3  -4621331.035 2  21608610.202    21608611.805    21608610.202
  -2270748.859 3  -1769438.545 1  24663656.968    24663664.209    24663656.968
   1876731.690 3   1462388.061 2  20746887.419    20746889.508    20746887.419
   4043256.640 3   3144755.758 2  19774376.042    19774368.365    19774376.042
  -3104339.386 3  -2414486.169 2  19554318.054    19554317.825    19554318.054
 -10888692.342 3  -8468979.134 2  22234424.201    22234427.409    22234424.201
 03  9 24  1 44 30.0000000  0 12G15G18G11G28G23G 3G14G 9G31R 5R21R22
   8082130.282 3   6297762.290 2  23352517.646    23352519.134    23352517.646
   8851852.837 3   6897547.829 1  24626979.025    24626979.683    24626979.025
  -7542136.519 3  -5876987.508 2  21852474.718    21852475.061    21852474.718
  -4247736.811 3  -3309922.315 2  24232176.222    24232177.224    24232176.222
   4166183.040 3   3246377.094 2  21741802.619    21741804.765    21741802.619
   7175211.470 3   5591072.594 2  22441458.897    22441462.274    22441458.897
  -5975505.417 3  -4656234.922 2  21600086.645    21600088.305    21600086.645
  -2279176.166 3  -1776005.275 1  24662053.166    24662055.827    24662053.166
   1923954.998 3   1499185.441 2  20755874.093    20755876.096    20755874.093
   4110285.996 3   3196889.701 2  19786910.648    19786902.971    19786910.648
  -3105079.298 3  -2415061.650 2  19554179.873    19554179.529    19554179.873
 -10999766.496 3  -8555370.106 2  22213710.725    22213714.335    22213710.725
 03  9 24  1 45  0.0000000  0 12G15G18G11G28G23G 3G14G 9G31R 5R21R22
   8181528.132 3   6375215.145 2  23371431.084    23371434.690    23371431.084
   8956800.124 3   6979324.910 1  24646947.791    24646948.335    24646947.791
  -7617346.910 3  -5935593.014 2  21838162.883    21838163.341    21838162.883
  -4271976.526 3  -3328810.356 2  24227565.015    24227565.759    24227565.015
   4228378.912 3   3294841.415 2  21753638.118    21753640.235    21753638.118
   7271705.452 3   5666262.678 2  22459821.452    22459823.970    22459821.452
  -6019725.716 3  -4690692.259 2  21591671.956    21591672.901    21591671.956
  -2286995.631 3  -1782098.263 1  24660563.956    24660569.594    24660563.956
   1971735.355 3   1536416.856 2  20764966.374    20764968.320    20764966.374
   4177723.612 3   3249341.173 2  19799521.787    19799513.652    19799521.787
  -3104995.788 3  -2414996.700 2  19554195.487    19554195.086    19554195.487
 -11110435.103 3  -8641445.681 2  22193072.594    22193075.859    22193072.594
 03  9 24  1 45 30.0000000  0 12G15G18G11G28G23G 3G14G 9G31R 5R21R22
   8281080.113 3   6452788.101 2  23390375.182    23390379.103    23390375.182
   9061810.622 3   7061151.302 1  24666931.363    24666935.170    24666931.363
  -7692306.199 3  -5994002.840 2  21823898.680    21823898.824    21823898.680
  -4295662.681 3  -3347267.085 2  24223056.452    24223058.083    24223056.452
   4290862.103 3   3343529.628 2  21765528.078    21765530.282    21765528.078
   7368483.121 3   5741673.822 2  22478237.430    22478240.521    22478237.430
  -6063378.201 3  -4724707.149 2  21583364.783    21583366.357    21583364.783
  -2294213.579 3  -1787722.594 1  24659192.711    24659199.379    24659192.711
   2020064.553 3   1574075.955 2  20774163.112    20774165.201    20774163.112
   4245558.683 3   3302101.790 2  19812207.199    19812199.235    19812207.199
  -3104094.967 3  -2414296.076 2  19554363.485    19554363.771    19554363.485
 -11220701.208 3  -8727208.176 2  22172510.504    22172514.457    22172510.504
 03  9 24  1 46  0.0000000  0 11G18G11G28G23G 3G14G 9G31R 5R21R22
   9166887.001 3   7143028.984 1  24686928.261    24686927.059    24686928.261
  -7767008.757 3  -6052212.600 2  21809683.421    21809683.479    21809683.421
  -4318790.177 3  -3365288.502 2  24218655.842    24218657.015    24218655.842
   4353635.220 3   3392443.748 2  21777473.366    21777475.884    21777473.366
   7465546.479 3   5817307.571 2  22496707.882    22496710.773    22496707.882
  -6106456.642 3  -4758274.757 2  21575167.383    21575169.100    21575167.383
  -2300824.929 3  -1792874.274 1  24657934.291    24657935.550    24657934.291
   2068945.642 3   1612165.110 2  20783464.769    20783466.887    20783464.769
   4313793.908 3   3355173.626 2  19824967.665    19824959.930    19824967.665
  -3102372.565 3  -2412956.439 2  19554685.306    19554685.077    19554685.306
 -11330556.259 3  -8812650.980 2  22152024.259    22152028.270    22152024.259
 03  9 24  1 46 30.0000000  0 11G18G11G28G23G 3G14G 9G31R 5R21R22
   9272026.453 3   7224955.841 1  24706934.094    24706934.008    24706934.094
  -7841454.293 3  -6110222.085 2  21795516.345    21795516.975    21795516.345
                                  24214361.188
   4416695.279 3   3441581.462 2  21789473.587    21789475.820    21789473.587
   7562892.056 3   5893161.236 2  22515231.717    22515235.524    22515231.717
  -6148961.009 3  -4791395.014 2  21567078.771    21567080.259    21567078.771
  -2306830.593 3  -1797554.166 1  24656792.582    24656793.097    24656792.582
   2118375.832 3   1650682.135 2  20792870.940    20792873.000    20792870.940
   4382425.512 3   3408553.756 2  19837802.296    19837794.619    19837802.296
  -3099829.622 3  -2410978.591 2  19555160.571    19555160.399    19555160.571
 -11439997.641 3  -8897772.036 2  22131615.777    22131619.558    22131615.777
 03  9 24  1 47  0.0000000  0 12G15G18G11G28G23G 3G14G 9G31R 5R21R22
   8580671.872 3   6686236.112 2  23447385.445    23447388.135    23447385.445
   9377227.263 3   7306930.445 1  24726952.091    24726955.096    24726952.091
  -7915641.742 3  -6168030.460 2  21781399.076    21781399.506    21781399.076
                                  24210173.202
   4480040.320 3   3490941.240 2  21801527.553    21801529.814    21801527.553
   7660517.392 3   5969232.889 2  22533809.293    22533812.612    22533809.293
  -6190889.763 3  -4824066.744 2  21559099.641    21559101.702    21559099.641
  -2312229.961 3  -1801761.526 1  24655767.161    24655771.111    24655767.161
   2168353.497 3   1689625.755 2  20802381.323    20802383.584    20802381.323
   4451450.790 3   3462240.082 2  19850710.197    19850702.635    19850710.197
  -3096466.089 3  -2408362.507 2  19555788.789    19555788.560    19555788.789
 -11549021.057 3  -8982567.998 2  22111284.110    22111288.521    22111284.110
 03  9 24  1 47 30.0000000  0 12G15G18G11G28G23G 3G14G 9G31R 5R21R22
   8680837.915 3   6764287.546 2  23466446.850    23466449.884    23466446.850
   9482482.622 3   7388947.587 1  24746981.249    24746984.197    24746981.249
  -7989574.239 3  -6225640.177 2  21767330.213    21767330.728    21767330.213
  -4384827.445 3  -3416616.067 2  24206139.003    24206125.466    24206139.003
   4543664.017 3   3540518.158 2  21813634.883    21813637.201    21813634.883
   7758415.442 3   6045517.059 2  22552438.827    22552441.889    22552438.827
  -6232246.027 3  -4856292.377 2  21551229.769    21551231.457    21551229.769
  -2317026.999 3  -1805499.434 1  24654851.951    24654854.583    24654851.951
   2218872.530 3   1728991.220 2  20811995.061    20811997.007    20811995.061
   4520862.403 3   3516226.897 2  19863690.736    19863682.314    19863690.736
  -3092285.537 3  -2405110.972 2  19556569.722    19556569.780    19556569.722
 -11657627.704 3  -9067039.836 2  22091031.751    22091035.361    22091031.751
 03  9 24  1 48  0.0000000  0 11G15G18G11G23G 3G14G 9G31R 5R21R22
   8781160.815 3   6842461.207 2  23485537.058    23485540.951    23485537.058
   9587801.159 3   7471013.945 1  24767023.445    24767023.245    24767023.445
  -8063240.308 3  -6283042.292 2  21753312.231    21753312.488    21753312.231
   4607574.581 3   3590318.599 2  21825796.727    21825798.959    21825796.727
   7856593.691 3   6122019.558 2  22571121.127    22571125.678    22571121.127
  -6273018.423 3  -4888063.042 2  21543471.507    21543472.709    21543471.507
  -2321211.324 3  -1808759.910 1  24654055.461    24654057.865    24654055.461
   2269941.299 3   1768785.052 2  20821713.076    20821714.965    20821713.076
   4590668.921 3   3570520.862 2  19876744.941    19876737.149    19876744.941
  -3087276.544 3  -2401215.096 2  19557505.449    19557505.277    19557505.449
 -11765803.566 3  -9151176.603 2  22070858.345    22070862.470    22070858.345
 03  9 24  1 48 30.0000000  0 11G15G18G11G23G 3G14G 9G31R 5R21R22
   8881633.384 3   6920751.516 2  23504657.920    23504659.150    23504657.920
   9693175.108 3   7553123.495 1  24787073.916    24787075.575    24787073.916
  -8136644.589 3  -6340240.463 2  21739343.785    21739343.842    21739343.785
   4671764.231 3   3640336.521 2  21838011.456    21838013.602    21838011.456
   7955043.908 3   6198733.972 2  22589856.074    22589859.622    22589856.074
  -6313211.515 3  -4919382.312 2  21535823.062    21535824.379    21535823.062
  -2324788.682 3  -1811547.482 1  24653373.562    24653376.968    24653373.562
   2321552.252 3   1809001.359 2  20831534.261    20831536.322    20831534.261
   4660860.306 3   3625114.166 2  19889870.769    19889862.920    19889870.769
  -3081446.851 3  -2396680.899 2  19558594.746    19558594.402    19558594.746
 -11873549.902 3  -9234979.274 2  22050766.341    22050769.435    22050766.341
 03  9 24  1 49  0.0000000  0 11G15G18G11G23G 3G14G 9G31R 5R21R22
   8982253.975 3   6999157.122 2  23523803.774    23523807.924    23523803.774
   9798602.335 3   7635274.547 2  24807136.155    24807139.074    24807136.155
  -8209786.005 3  -6397233.794 2  21725425.492    21725425.606    21725425.492
   4736230.791 3   3690570.208 2  21850279.040    21850281.244    21850279.040
   8053763.033 3   6275657.943 2  22608640.722    22608644.700    22608640.722
  -6352824.290 3  -4950249.397 2  21528285.099    21528286.616    21528285.099
  -2327758.991 3  -1813861.921 1  24652807.948    24652811.639    24652807.948
   2373703.261 3   1849638.507 2  20841458.375    20841460.235    20841458.375
   4731435.117 3   3680005.680 2  19903068.954    19903060.818    19903068.954
  -3074796.669 3  -2391508.535 2  19559836.970    19559836.225    19559836.970
 -11980864.280 3  -9318446.015 2  22030753.078    22030757.833    22030753.078
 03  9 24  1 49 30.0000000  0 12G15G18G11G28G23G 3G14G 9G31R 5R21R22
   9083024.839 3   7077679.842 2  23542981.688    23542983.434    23542981.688
   9904085.211 3   7717468.972 2  24827208.543    24827212.979    24827208.543
  -8282659.553 3  -6454018.355 2  21711558.190    21711558.304    21711558.190
                                  24190827.936
   4800976.046 3   3741021.069 2  21862599.813    21862601.816    21862599.813
   8152752.640 3   6352792.656 2  22627478.856    22627481.574    22627478.856
  -6391851.818 3  -4980660.424 2  21520858.254    21520859.656    21520858.254
  -2330118.459 3  -1815700.469 1  24652359.280    24652363.344    24652359.280
   2426396.365 3   1890698.053 2  20851485.758    20851487.361    20851485.758
   4802394.200 3   3735196.080 2  19916338.372    19916330.523    19916338.372
  -3067321.075 3  -2385694.190 2  19561233.315    19561233.029    19561233.315
 -12087738.307 3  -9401570.262 2  22010824.186    22010827.165    22010824.186
 03  9 24  1 50  0.0000000  0 12G15G18G11G28G23G 3G14G 9G31R 5R21R22
   9183944.968 3   7156318.922 2  23562185.037    23562188.185    23562185.037
  10009621.433 3   7799704.974 2  24847295.052    24847294.737    24847295.052
  -8355264.000 3  -6510593.221 2  21697742.003    21697742.232    21697742.003
                                  24187277.512
   4865998.281 3   3791687.748 2  21874973.023    21874975.255    21874973.023
   8252010.189 3   6430136.176 2  22646366.798    22646370.146    22646366.798
  -6430292.736 3  -5010614.363 2  21513542.767    21513544.685    21513542.767
  -2331866.993 3  -1817062.990 1  24652025.225    24652026.284    24652025.225
   2479629.824 3   1932178.660 2  20861615.685    20861617.459    20861615.685
   4873734.759 3   3790683.170 2  19929679.544    19929672.096    19929679.544
  -3059020.020 3  -2379237.814 2  19562783.836    19562784.065    19562783.836
 -12194168.681 3  -9484349.408 2  21990976.215    21990980.111    21990976.215
 03  9 24  1 50 30.0000000  0 11G18G11G28G23G 3G14G 9G31R 5R21R22
  10115200.018 3   7881973.994 2  24867384.703    24867387.251    24867384.703
  -8427607.368 3  -6566964.672 2  21683975.253    21683976.026    21683975.253
                                  24183835.461
   4931286.342 3   3842561.571 2  21887396.979    21887399.211    21887396.979
   8351523.623 3   6507679.075 2  22665304.320    22665307.697    22665304.320
  -6468155.146 3  -5040117.510 2  21506337.939    21506339.541    21506337.939
  -2333013.700 3  -1817956.667 1  24651810.820    24651813.167    24651810.820
   2533392.523 3   1974071.642 2  20871846.353    20871848.328    20871846.353
   4945443.954 3   3846456.980 2  19943089.339    19943082.636    19943089.339
  -3049903.439 3  -2372147.132 2  19564487.077    19564486.676    19564487.077
 -12300160.352 3  -9566787.362 2  21971210.390    21971214.916    21971210.390
 03  9 24  1 51  0.0000000  0 11G18G11G28G23G 3G14G 9G31R 5R21R22
  10220830.407 3   7964283.369 2  24887485.976    24887484.516    24887485.976
  -8499677.343 3  -6623123.090 2  21670260.624    21670261.110    21670260.624
  -4519293.510 3  -3518879.738 1  24180500.678    24180501.565    24180500.678
   4996849.313 3   3893649.605 2  21899873.131    21899875.506    21899873.131
   8451301.357 3   6585427.928 2  22684291.119    22684294.296    22684291.119
  -6505426.848 3  -5069160.377 2  21499245.648    21499246.879    21499245.648
  -2333546.741 3  -1818371.945 1  24651709.290    24651711.550    24651709.290
   2587693.840 3   2016384.331 2  20882179.488    20882181.348    20882179.488
   5017531.920 3   3902525.411 2  19956570.520    19956563.359    19956570.520
  -3039959.365 3  -2364412.850 2  19566344.724    19566344.380    19566344.724
 -12405698.788 3  -9648872.804 2  21951529.597    21951533.206    21951529.597
 03  9 24  1 51 30.0000000  0 11G18G11G28G23G 3G14G 9G31R 5R21R22
  10326507.206 3   8046628.884 2  24907595.203    24907595.947    24907595.203
  -8571476.292 3  -6679070.328 2  21656597.950    21656598.322    21656597.950
  -4536255.289 3  -3532096.723 2  24177272.566    24177274.627    24177272.566
   5062681.569 3   3944947.467 2  21912400.535    21912402.596    21912400.535
   8551337.150 3   6663377.872 2  22703327.016    22703329.763    22703327.016
  -6542110.366 3  -5097744.921 2  21492265.521    21492266.237    21492265.521
  -2333470.005 3  -1818312.081 1  24651722.831    24651723.261    24651722.831
   2642528.178 3   2059112.362 2  20892614.113    20892616.173    20892614.113
   5089991.671 3   3958882.997 2  19970121.087    19970113.066    19970121.087
  -3029192.940 3  -2356038.950 2  19568356.286    19568355.942    19568356.286
 -12510783.702 3  -9730605.523 2  21931933.401    21931936.667    21931933.401
 03  9 24  1 52  0.0000000  0 11G18G11G28G23G 3G14G 9G31R 5R21R22
  10432230.537 3   8129010.719 1  24927714.256    24927714.485    24927714.256
  -8643000.454 3  -6734803.442 2  21642987.612    21642987.955    21642987.612
  -4552651.665 3  -3544873.105 2  24174152.259    24174155.436    24174152.259
   5128783.556 3   3996455.519 2  21924979.627    21924981.716    21924979.627
   8651631.215 3   6741529.066 2  22722412.866    22722416.071    22722412.866
  -6578202.277 3  -5125868.475 2  21485397.429    21485398.030    21485397.429
  -2332781.586 3  -1817775.755 1  24651855.752    24651855.036    24651855.752
   2697896.023 3   2102256.123 2  20903150.001    20903152.490    20903150.001
   5162822.996 3   4015529.583 2  19983740.351    19983733.132    19983740.351
  -3017600.785 3  -2347022.825 2  19570521.696    19570521.524    19570521.696
 -12615408.804 3  -9811980.600 2  21912422.179    21912426.533    21912422.179
 03  9 24  1 52 30.0000000  0 11G18G11G28G23G 3G14G 9G31R 5R21R22
  10537996.569 3   8211425.755 1  24947841.308    24947843.054    24947841.308
  -8714251.111 3  -6790323.449 2  21629428.904    21629429.934    21629428.904
  -4568485.158 3  -3557210.899 2  24171139.938    24171140.367    24171139.938
   5195151.002 3   4048170.416 2  21937608.850    21937611.168    21937608.850
   8752178.369 3   6819877.462 2  22741546.303    22741549.222    22741546.303
  -6613703.926 3  -5153532.083 2  21478641.036    21478642.696    21478641.036
  -2331483.121 3  -1816763.925 1  24652100.918    24652102.978    24652100.918
   2753793.058 3   2145812.248 2  20913787.159    20913789.334    20913787.159
   5236021.862 3   4072462.045 2  19997429.795    19997421.316    19997429.795
  -3005185.370 3  -2337366.391 2  19572840.912    19572840.970    19572840.912
 -12719572.563 3  -9892996.829 2  21892998.651    21893001.229    21892998.651
 03  9 24  1 53  0.0000000  0 11G18G11G28G23G 3G14G 9G31R 5R21R22
  10643804.623 3   8293873.602 1  24967973.979    24967974.608    24967973.979
  -8785225.648 3  -6845628.297 2  21615922.799    21615923.314    21615922.799
  -4583754.084 3  -3569108.738 2  24168233.294    24168232.750    24168233.294
   5261783.309 3   4100091.706 2  21950288.489    21950290.893    21950288.489
   8852977.244 3   6898422.014 2  22760727.298    22760730.589    22760727.298
  -6648612.892 3  -5180733.839 2  21471997.723    21471999.641    21471997.723
  -2329573.719 3  -1815276.126 1  24652464.035    24652467.555    24652464.035
   2810218.703 3   2189780.254 2  20924524.612    20924526.672    20924524.612
   5309585.981 3   4129678.579 2  20011186.441    20011178.363    20011186.441
  -2991946.207 3  -2327069.268 2  19575313.713    19575313.885    19575313.713
 -12823270.097 3  -9973650.460 2  21873660.161    21873663.484    21873660.161
 03  9 24  1 53 30.0000000  0 12G15G18G11G28G23G 3G14G 9G31R 5R21R22
   9894389.014 3   7709911.473 2  23697377.285    23697382.694    23697377.285
  10749649.490 3   8376350.109 1  24988114.554    24988122.224    24988114.554
  -8855926.301 3  -6900719.710 2  21602469.103    21602469.818    21602469.103
  -4598461.706 3  -3580569.242 2  24165436.004    24165436.490    24165436.004
   5328675.372 3   4152215.394 2  21963017.209    21963020.299    21963017.209
   8954021.950 3   6977158.119 2  22779955.136    22779959.486    22779955.136
  -6682931.330 3  -5207475.448 2  21465466.934    21465468.852    21465466.934
  -2327056.454 3  -1813314.620 1  24652944.634    24652945.436    24652944.634
   2867167.843 3   2234156.194 2  20935361.701    20935363.676    20935361.701
   5383510.230 3   4187175.223 2  20025010.591    20025002.513    20025010.591
  -2977887.529 3  -2316134.744 2  19577940.227    19577940.227    19577940.227
 -12926501.250 3 -10053941.349 2  21854409.875    21854412.396    21854409.875
 03  9 24  1 54  0.0000000  0 12G15G18G11G28G23G 3G14G 9G31R 5R21R22
   9996443.259 3   7789434.226 2  23716799.011    23716801.702    23716799.011
  10855534.813 3   8458858.099 1  25008265.254    25008265.454    25008265.254
  -8926346.501 3  -6955592.616 2  21589068.427    21589069.285    21589068.427
  -4612602.911 3  -3591588.357 2  24162743.213    24162743.899    24162743.213
   5395830.176 3   4204543.814 2  21975796.363    21975799.225    21975796.363
   9055314.942 3   7056087.700 2  22799231.139    22799234.344    22799231.139
  -6716653.357 3  -5233752.327 2  21459050.441    21459052.301    21459050.441
  -2323926.338 3  -1810875.588 1  24653537.439    24653540.187    24653537.439
   2924643.374 3   2278942.294 2  20946298.880    20946300.740    20946298.880
   5457796.287 3   4244953.279 2  20038902.481    20038894.002    20038902.481
  -2963003.809 3  -2304558.526 2  19580720.668    19580720.497    19580720.668
 -13029256.673 3 -10133862.239 2  21835247.698    21835251.136    21835247.698
 03  9 24  1 54 30.0000000  0 12G15G18G11G28G23G 3G14G 9G31R 5R21R22
  10098633.215 3   7869062.763 2  23736242.667    23736247.704    23736242.667
  10961455.771 3   8541393.882 1  25028420.066    25028424.874    25028420.066
  -8996488.314 3  -7010248.584 2  21575721.178    21575721.207    21575721.178
  -4626180.785 3  -3602168.482 2  24160160.191    24160162.337    24160160.191
   5463242.704 3   4257073.058 2  21988624.773    21988627.034    21988624.773
   9156850.437 3   7135206.234 2  22818551.943    22818555.634    22818551.943
  -6749780.968 3  -5259566.032 2  21452746.827    21452747.714    21452746.827
  -2320186.912 3  -1807961.734 1  24654249.649    24654252.167    24654249.649
   2982640.327 3   2324134.716 2  20957335.275    20957337.364    20957335.275
   5532437.859 3   4303007.836 2  20052860.998    20052852.404    20052860.998
  -2947298.857 3  -2292343.561 2  19583654.410    19583654.410    19583654.410
 -13131535.789 3 -10213412.652 2  21816174.933    21816177.855    21816174.933
 03  9 24  1 55  0.0000000  0 12G15G18G11G28G23G 3G14G 9G31R 5R21R22
  10200960.031 3   7948797.893 2  23755716.487    23755719.635    23755716.487
  11067413.170 3   8623958.084 1  25048584.884    25048577.844    25048584.884
  -9066347.421 3  -7064684.279 2  21562427.361    21562427.876    21562427.361
  -4639192.677 3  -3612307.604 2  24157683.577    24157686.153    24157683.577
   5530913.855 3   4309803.833 2  22001501.976    22001504.437    22001501.976
   9258628.586 3   7214513.841 2  22837920.797    22837923.802    22837920.797
  -6782310.546 3  -5284913.741 2  21446556.881    21446557.826    21446556.881
  -2315835.377 3  -1804570.993 1  24655079.117    24655078.373    24655079.117
   3041159.448 3   2369734.013 2  20968470.984    20968473.331    20968470.984
   5607435.652 3   4361339.453 2  20066885.948    20066877.870    20066885.948
  -2930769.686 3  -2279487.536 2  19586742.481    19586741.966    19586742.481
 -13233332.169 3 -10292587.605 2  21797191.733    21797195.228    21797191.733
 03  9 24  1 56 30.0000000  0 12G15G18G11G28G23G 3G14G 9G31R 5R21R22
  10508747.381 3   8188632.129 2  23814286.894    23814289.870    23814286.894
  11385484.848 2                  25109109.071                    25109109.071
  -9274218.914 3  -7226662.108 2  21522870.443    21522871.273    21522870.443
  -4674833.091 3  -3640079.336 2  24150902.312    24150903.170    24150902.312
   5735458.112 3   4469188.994 2  22040425.596    22040428.057    22040425.596
   9565391.371 3   7453549.686 2  22896295.631    22896299.180    22896295.631
  -6876303.176 3  -5358154.676 2  21428669.653    21428671.227    21428669.653
  -2299109.826 3  -1791538.134 1  24658263.216    24658266.050    24658263.216
   3219828.297 3   2508956.411 2  21002470.816    21002472.762    21002470.816
   5834541.665 3   4537977.472 2  20109355.363    20109348.029    20109355.363
  -2876247.939 3  -2237081.767 2  19596927.037    19596927.438    19596927.037
 -13535788.238 3 -10527831.169 2  21740788.972    21740792.753    21740788.972
 03  9 24  1 57  0.0000000  0 12G15G18G11G28G23G 3G14G 9G31R 5R21R22
  10611605.472 3   8268781.226 2  23833858.542    23833862.834    23833858.542
  11491567.369 2   8954467.629 1  25129299.098    25129303.133    25129299.098
  -9342938.553 3  -7280209.863 2  21509793.635    21509794.035    21509793.635
  -4685583.877 3  -3648456.545 2  24148857.615    24148856.642    24148857.615
   5804141.333 3   4522708.385 2  22053495.595    22053498.028    22053495.595
   9668110.832 3   7533590.788 2  22915841.764    22915846.343    22915841.764
  -6906434.698 3  -5381633.759 2  21422935.996    21422937.599    21422935.996
  -2292314.047 3  -1786242.653 1  24659553.654    24659555.343    24659553.654
   3280412.915 3   2556165.191 2  21013999.595    21014001.941    21013999.595
   5910937.260 3   4597396.279 2  20123641.911    20123633.833    20123641.911
  -2856433.431 3  -2221670.503 2  19600628.564    19600628.793    19600628.564
 -13635619.101 3 -10605477.387 2  21722172.401    21722175.896    21722172.401
 03  9 24  1 57 30.0000000  0 11G18G11G28G23G 3G14G 9G31R 5R21R22
  11597681.398 3   9037153.845 1  25149489.431    25149490.948    25149489.431
  -9411365.518 3  -7333529.565 2  21496772.533    21496773.305    21496772.533
  -4695764.756 3  -3656389.699 2  24146918.956    24146921.217    24146918.956
   5873077.565 3   4576424.941 2  22066613.775    22066616.351    22066613.775
   9771063.832 3   7613813.871 2  22935433.572    22935437.721    22935433.572
  -6935959.842 3  -5404640.347 2  21417317.633    21417319.006    21417317.633
  -2284903.076 3  -1780467.824 1  24660966.094    24660968.813    24660966.094
   3341513.377 3   2603775.935 2  21025626.637    21025629.013    21025626.637
   5987680.219 3   4657085.247 2  20137992.893    20137985.617    20137992.893
  -2835791.754 3  -2205615.888 2  19604484.857    19604484.972    19604484.857
 -13734944.140 3 -10682730.186 2  21703650.211    21703654.107    21703650.211
